KC5DAQ-22 Weather Reports


time (UTC)temp
F
wind
direction
speed
knots
gust
knots
rain 1hr
in
rain 24hr
in
rain mn
in
humidity
%
barometer
mb
20210224233212 77 193 2.6 5.2 0.00 0.00 0.00 69 1014.2
20210224233112 78 230 2.6 5.2 0.00 0.00 0.00 69 1014.2
20210224233030 78 219 2.6 6.1 0.00 0.00 0.00 69 1014.2
20210224232957 78 159 1.7 7.8 0.00 0.00 0.00 69 1014.1
20210224232938 78 219 1.7 7.8 0.00 0.00 0.00 68 1014.2
20210224232922 78 248 2.6 7.8 0.00 0.00 0.00 68 1014.2
20210224232810 78 247 2.6 7.8 0.00 0.00 0.00 68 1014.2
20210224232640 78 244 2.6 7.8 0.00 0.00 0.00 68 1014.2
20210224232443 78 238 3.5 7.8 0.00 0.00 0.00 68 1014.2
20210224232338 78 212 4.3 7.8 0.00 0.00 0.00 68 1014.1
20210224232214 78 248 4.3 7.8 0.00 0.00 0.00 68 1014.1
20210224232120 78 243 4.3 7.8 0.00 0.00 0.00 68 1014.0
20210224232022 78 251 3.5 7.8 0.00 0.00 0.00 68 1014.0
20210224231912 78 261 3.5 7.8 0.00 0.00 0.00 68 1014.0
20210224231812 78 274 3.5 7.8 0.00 0.00 0.00 68 1014.0
20210224231733 78 240 4.3 7.8 0.00 0.00 0.00 68 1014.0
20210224231711 78 257 4.3 7.8 0.00 0.00 0.00 68 1014.0
20210224231524 78 255 3.5 7.8 0.00 0.00 0.00 68 1014.0
20210224231412 78 219 2.6 7.8 0.00 0.00 0.00 68 1014.0
20210224231313 78 241 2.6 7.8 0.00 0.00 0.00 68 1014.0
20210224231212 78 268 3.5 7.8 0.00 0.00 0.00 68 1013.9
20210224231110 78 224 3.5 7.8 0.00 0.00 0.00 68 1014.0
20210224231023 78 234 4.3 7.8 0.00 0.00 0.00 68 1014.0
20210224230909 78 228 4.3 7.8 0.00 0.00 0.00 68 1014.0
20210224230811 78 316 3.5 7.8 0.00 0.00 0.00 67 1014.0
20210224230711 78 252 3.5 7.8 0.00 0.00 0.00 67 1014.0
20210224230610 78 265 5.2 7.8 0.00 0.00 0.00 67 1014.0
20210224230523 78 278 4.3 7.8 0.00 0.00 0.00 67 1014.0
20210224230414 78 248 3.5 9.6 0.00 0.00 0.00 67 1014.0
20210224230317 78 272 3.5 9.6 0.00 0.00 0.00 68 1014.0
20210224230215 78 248 2.6 9.6 0.00 0.00 0.00 67 1014.1
20210224230113 78 257 2.6 9.6 0.00 0.00 0.00 67 1014.0
20210224230027 78 281 4.3 9.6 0.00 0.00 0.00 67 1014.0
20210224225914 78 216 4.3 9.6 0.00 0.00 0.00 67 1013.9
20210224225812 78 307 3.5 9.6 0.00 0.00 0.00 67 1013.9
20210224225710 78 226 3.5 9.6 0.00 0.00 0.00 67 1014.0
20210224225611 78 243 4.3 9.6 0.00 0.00 0.00 67 1014.0
20210224225523 78 296 4.3 9.6 0.00 0.00 0.00 67 1014.0
20210224225411 78 216 2.6 5.2 0.00 0.00 0.00 67 1014.0
20210224225311 78 264 2.6 6.1 0.00 0.00 0.00 67 1014.0
20210224225215 78 247 1.7 6.1 0.00 0.00 0.00 67 1014.1
20210224225114 78 252 2.6 6.1 0.00 0.00 0.00 67 1014.1
20210224225025 78 207 2.6 6.1 0.00 0.00 0.00 67 1014.1
20210224224918 78 214 2.6 6.1 0.00 0.00 0.00 67 1014.1
20210224224818 78 282 3.5 6.1 0.00 0.00 0.00 67 1014.1
20210224224715 78 251 3.5 6.1 0.00 0.00 0.00 67 1014.1
20210224224611 78 200 3.5 6.1 0.00 0.00 0.00 67 1014.0
20210224224522 78 255 3.5 8.7 0.00 0.00 0.00 67 1014.0
20210224224411 78 227 3.5 8.7 0.00 0.00 0.00 67 1014.0
20210224224316 78 276 3.5 8.7 0.00 0.00 0.00 67 1014.0
20210224224210 78 226 3.5 10.4 0.00 0.00 0.00 67 1013.9
20210224224112 78 220 3.5 10.4 0.00 0.00 0.00 67 1013.9
20210224224021 78 231 3.5 10.4 0.00 0.00 0.00 67 1013.9
20210224223912 78 224 3.5 10.4 0.00 0.00 0.00 67 1014.0
20210224223812 78 310 3.5 10.4 0.00 0.00 0.00 67 1014.0
20210224223712 78 224 4.3 10.4 0.00 0.00 0.00 67 1014.0
20210224223615 78 254 4.3 10.4 0.00 0.00 0.00 67 1014.0
20210224223517 78 228 3.5 10.4 0.00 0.00 0.00 67 1013.9
20210224223421 78 241 4.3 10.4 0.00 0.00 0.00 66 1014.0
20210224223310 78 243 4.3 10.4 0.00 0.00 0.00 67 1014.0
20210224223210 78 271 3.5 8.7 0.00 0.00 0.00 67 1014.0
20210224223110 78 274 3.5 8.7 0.00 0.00 0.00 67 1014.0
20210224223043 78 259 4.3 8.7 0.00 0.00 0.00 67 1013.9
20210224222955 78 238 4.3 9.6 0.00 0.00 0.00 67 1013.9
20210224222948 78 275 5.2 10.4 0.00 0.00 0.00 67 1014.0
20210224222930 78 233 5.2 10.4 0.00 0.00 0.00 67 1014.0
20210224222922 78 234 3.5 10.4 0.00 0.00 0.00 67 1014.0
20210224222738 78 272 2.6 10.4 0.00 0.00 0.00 67 1014.0
20210224222453 78 279 3.5 10.4 0.00 0.00 0.00 67 1014.0
20210224222326 78 264 3.5 10.4 0.00 0.00 0.00 67 1014.0
20210224222212 78 240 4.3 10.4 0.00 0.00 0.00 67 1014.0
20210224222118 78 247 5.2 10.4 0.00 0.00 0.00 67 1013.9
20210224222031 78 266 7.0 10.4 0.00 0.00 0.00 66 1014.0
20210224221917 78 295 7.0 10.4 0.00 0.00 0.00 66 1014.0
20210224221810 79 264 5.2 9.6 0.00 0.00 0.00 67 1014.0
20210224221711 79 257 5.2 9.6 0.00 0.00 0.00 67 1014.0
20210224221616 79 248 4.3 9.6 0.00 0.00 0.00 67 1014.0
20210224221524 79 223 3.5 11.3 0.00 0.00 0.00 66 1014.0
20210224221415 79 265 4.3 11.3 0.00 0.00 0.00 66 1014.0
20210224221311 79 265 4.3 11.3 0.00 0.00 0.00 66 1014.0
20210224221212 79 265 4.3 11.3 0.00 0.00 0.00 66 1014.0
20210224221113 79 265 4.3 11.3 0.00 0.00 0.00 66 1014.0
20210224221028 79 262 4.3 11.3 0.00 0.00 0.00 66 1014.0
20210224220913 79 265 3.5 12.2 0.00 0.00 0.00 66 1014.1
20210224220813 78 223 4.3 13.0 0.00 0.00 0.00 67 1014.0
20210224220713 78 257 6.1 13.0 0.00 0.00 0.00 67 1014.0
20210224220614 78 237 7.0 13.0 0.00 0.00 0.00 66 1014.0
20210224220520 79 233 6.1 13.0 0.00 0.00 0.00 66 1014.1
20210224220414 79 264 5.2 13.0 0.00 0.00 0.00 66 1014.1
20210224220314 79 223 5.2 13.0 0.00 0.00 0.00 66 1014.1
20210224220210 79 268 6.1 13.0 0.00 0.00 0.00 66 1014.1
20210224220114 79 192 7.8 13.0 0.00 0.00 0.00 67 1014.1
20210224220036 79 155 7.8 13.0 0.00 0.00 0.00 67 1014.0
20210224215915 79 169 7.0 13.0 0.00 0.00 0.00 66 1014.0
20210224215811 79 219 6.1 10.4 0.00 0.00 0.00 66 1014.1
20210224215711 79 190 5.2 10.4 0.00 0.00 0.00 67 1014.1
20210224215610 79 196 4.3 10.4 0.00 0.00 0.00 68 1014.1
20210224215523 79 251 5.2 10.4 0.00 0.00 0.00 67 1014.1
20210224215456 79 248 5.2 10.4 0.00 0.00 0.00 67 1014.1
20210224215440 79 238 4.3 10.4 0.00 0.00 0.00 67 1014.1
20210224215414 79 195 5.2 10.4 0.00 0.00 0.00 67 1014.1
20210224215407 79 238 5.2 10.4 0.00 0.00 0.00 67 1014.1
20210224215221 79 233 6.1 10.4 0.00 0.00 0.00 66 1014.1
20210224215119 79 247 6.1 10.4 0.00 0.00 0.00 66 1014.1
20210224214914 80 207 5.2 10.4 0.00 0.00 0.00 66 1014.1
20210224214716 80 159 5.2 10.4 0.00 0.00 0.00 66 1014.1
20210224214617 80 224 5.2 10.4 0.00 0.00 0.00 66 1014.1
20210224214524 79 251 4.3 10.4 0.00 0.00 0.00 66 1014.1
20210224214410 79 247 5.2 10.4 0.00 0.00 0.00 66 1014.2
20210224214316 79 189 6.1 10.4 0.00 0.00 0.00 66 1014.1
20210224214209 79 233 6.1 10.4 0.00 0.00 0.00 67 1014.2
20210224214112 79 219 6.1 11.3 0.00 0.00 0.00 67 1014.2
20210224214027 79 172 3.5 11.3 0.00 0.00 0.00 67 1014.2
20210224213911 79 203 1.7 11.3 0.00 0.00 0.00 68 1014.2
20210224213810 78 252 1.7 11.3 0.00 0.00 0.00 68 1014.2
20210224213710 78 282 3.5 11.3 0.00 0.00 0.00 67 1014.2
20210224213611 78 207 4.3 11.3 0.00 0.00 0.00 68 1014.2
20210224213520 78 227 5.2 11.3 0.00 0.00 0.00 68 1014.2
20210224213411 79 257 6.1 11.3 0.00 0.00 0.00 68 1014.1
20210224213311 79 244 6.1 11.3 0.00 0.00 0.00 67 1014.2
20210224213213 79 262 6.1 11.3 0.00 0.00 0.00 68 1014.1
20210224213115 79 224 5.2 11.3 0.00 0.00 0.00 67 1014.1
20210224213028 79 230 5.2 12.2 0.00 0.00 0.00 67 1014.2
20210224212927 79 237 6.1 12.2 0.00 0.00 0.00 67 1014.1
20210224212918 79 228 6.1 12.2 0.00 0.00 0.00 67 1014.2
20210224212911 79 271 5.2 12.2 0.00 0.00 0.00 67 1014.2
20210224212757 79 235 5.2 12.2 0.00 0.00 0.00 66 1014.3
20210224212627 79 224 4.3 12.2 0.00 0.00 0.00 66 1014.3
20210224212436 79 185 4.3 12.2 0.00 0.00 0.00 66 1014.2
20210224212310 79 195 5.2 12.2 0.00 0.00 0.00 66 1014.2
20210224212211 79 234 5.2 12.2 0.00 0.00 0.00 66 1014.2
20210224212111 79 216 7.0 13.0 0.00 0.00 0.00 66 1014.2
20210224212025 79 202 7.0 13.0 0.00 0.00 0.00 67 1014.2
20210224211916 79 140 5.2 13.0 0.00 0.00 0.00 67 1014.2
20210224211816 79 231 6.1 13.0 0.00 0.00 0.00 67 1014.3
20210224211712 79 231 6.1 13.0 0.00 0.00 0.00 67 1014.2
20210224211611 79 221 6.1 13.0 0.00 0.00 0.00 67 1014.2
20210224211529 79 213 5.2 13.0 0.00 0.00 0.00 67 1014.2
20210224211412 79 200 5.2 13.0 0.00 0.00 0.00 68 1014.3
20210224211314 78 240 7.0 13.0 0.00 0.00 0.00 68 1014.3
20210224211212 78 207 7.8 13.0 0.00 0.00 0.00 68 1014.3
20210224211115 78 217 7.8 12.2 0.00 0.00 0.00 68 1014.3
20210224211022 78 203 6.1 12.2 0.00 0.00 0.00 68 1014.3
20210224210918 78 213 5.2 11.3 0.00 0.00 0.00 69 1014.2
20210224210822 78 252 6.1 11.3 0.00 0.00 0.00 69 1014.4
20210224210711 78 227 7.0 11.3 0.00 0.00 0.00 69 1014.3
20210224210614 78 196 7.0 11.3 0.00 0.00 0.00 69 1014.3
20210224210523 78 209 7.0 13.0 0.00 0.00 0.00 68 1014.4
20210224210414 78 193 7.0 13.9 0.00 0.00 0.00 68 1014.4
20210224210312 78 251 7.0 13.9 0.00 0.00 0.00 68 1014.4
20210224210214 78 209 7.0 13.9 0.00 0.00 0.00 68 1014.3
20210224210111 78 223 6.1 13.9 0.00 0.00 0.00 68 1014.4
20210224210020 78 235 5.2 13.9 0.00 0.00 0.00 68 1014.3
20210224205911 78 212 5.2 13.9 0.00 0.00 0.00 68 1014.3
20210224205810 78 266 5.2 14.8 0.00 0.00 0.00 68 1014.3
20210224205714 78 233 7.8 14.8 0.00 0.00 0.00 68 1014.3
20210224205612 78 217 9.6 14.8 0.00 0.00 0.00 68 1014.3
20210224205518 78 204 8.7 14.8 0.00 0.00 0.00 68 1014.3
20210224205410 78 193 7.8 14.8 0.00 0.00 0.00 68 1014.2
20210224205325 78 190 7.0 14.8 0.00 0.00 0.00 68 1014.2
20210224205318 78 148 6.1 14.8 0.00 0.00 0.00 68 1014.2
20210224205259 78 243 6.1 14.8 0.00 0.00 0.00 68 1014.2
20210224205108 78 219 7.8 14.8 0.00 0.00 0.00 68 1014.3
20210224204936 79 258 7.0 14.8 0.00 0.00 0.00 68 1014.3
20210224204835 79 200 5.2 13.0 0.00 0.00 0.00 68 1014.2
20210224204712 79 172 6.1 13.0 0.00 0.00 0.00 67 1014.3
20210224204614 79 250 5.2 13.0 0.00 0.00 0.00 67 1014.3
20210224204520 79 250 5.2 13.0 0.00 0.00 0.00 67 1014.4
20210224204412 79 250 5.2 13.0 0.00 0.00 0.00 67 1014.3
20210224204312 79 216 5.2 13.0 0.00 0.00 0.00 67 1014.3
20210224204211 79 237 7.8 13.0 0.00 0.00 0.00 67 1014.3
20210224204111 79 231 9.6 13.0 0.00 0.00 0.00 67 1014.3
20210224204020 80 227 7.8 12.2 0.00 0.00 0.00 66 1014.3
20210224203913 80 172 6.1 12.2 0.00 0.00 0.00 67 1014.3
20210224203813 80 219 5.2 14.8 0.00 0.00 0.00 66 1014.2
20210224203714 80 202 6.1 14.8 0.00 0.00 0.00 66 1014.2
20210224203610 80 207 5.2 14.8 0.00 0.00 0.00 66 1014.2
20210224203526 80 199 5.2 14.8 0.00 0.00 0.00 67 1014.2
20210224203410 80 230 6.1 14.8 0.00 0.00 0.00 67 1014.2
20210224203310 80 220 6.1 14.8 0.00 0.00 0.00 66 1014.1
20210224203214 80 300 5.2 16.5 0.00 0.00 0.00 65 1014.1
20210224203117 80 247 4.3 16.5 0.00 0.00 0.00 65 1014.2
20210224203023 80 261 6.1 16.5 0.00 0.00 0.00 65 1014.0
20210224202927 80 235 7.8 16.5 0.00 0.00 0.00 65 1014.1
20210224202918 80 161 7.0 16.5 0.00 0.00 0.00 66 1014.1
20210224202856 80 228 6.1 16.5 0.00 0.00 0.00 66 1014.2
20210224202802 80 169 6.1 16.5 0.00 0.00 0.00 68 1014.1
20210224202604 79 216 7.0 16.5 0.00 0.00 0.00 68 1014.1
20210224202427 79 268 9.6 16.5 0.00 0.00 0.00 67 1014.2
20210224202312 79 257 11.3 16.5 0.00 0.00 0.00 67 1014.2
20210224202210 79 216 10.4 16.5 0.00 0.00 0.00 67 1014.2
20210224202111 79 227 8.7 14.8 0.00 0.00 0.00 67 1014.2
20210224202021 79 195 7.0 14.8 0.00 0.00 0.00 67 1014.2
20210224201917 80 286 6.1 14.8 0.00 0.00 0.00 66 1014.2
20210224201813 80 258 6.1 14.8 0.00 0.00 0.00 66 1014.2
20210224201713 80 233 7.0 14.8 0.00 0.00 0.00 66 1014.2
20210224201614 80 199 7.8 14.8 0.00 0.00 0.00 66 1014.2
20210224201517 80 227 7.8 14.8 0.00 0.00 0.00 66 1014.2
20210224201411 80 189 7.0 16.5 0.00 0.00 0.00 65 1014.2
20210224201312 80 226 7.8 16.5 0.00 0.00 0.00 66 1014.3
20210224201213 80 259 7.8 16.5 0.00 0.00 0.00 65 1014.3
20210224201113 80 227 6.1 16.5 0.00 0.00 0.00 66 1014.3
20210224201023 80 195 6.1 16.5 0.00 0.00 0.00 66 1014.3
20210224200911 80 180 7.0 16.5 0.00 0.00 0.00 66 1014.3
20210224200811 80 210 7.0 16.5 0.00 0.00 0.00 66 1014.3
20210224200713 80 243 7.0 16.5 0.00 0.00 0.00 67 1014.3
20210224200611 80 207 8.7 16.5 0.00 0.00 0.00 67 1014.4
20210224200521 80 244 9.6 16.5 0.00 0.00 0.00 66 1014.3
20210224200412 79 221 9.6 13.9 0.00 0.00 0.00 67 1014.4
20210224200312 79 214 7.0 13.9 0.00 0.00 0.00 68 1014.3
20210224200212 79 195 6.1 11.3 0.00 0.00 0.00 69 1014.4
20210224200111 78 237 6.1 11.3 0.00 0.00 0.00 69 1014.3
20210224200029 78 200 4.3 11.3 0.00 0.00 0.00 70 1014.3
20210224195910 78 264 5.2 12.2 0.00 0.00 0.00 70 1014.4
20210224195813 78 204 6.1 14.8 0.00 0.00 0.00 69 1014.4
20210224195713 78 258 6.1 14.8 0.00 0.00 0.00 69 1014.5
20210224195610 78 258 7.0 14.8 0.00 0.00 0.00 69 1014.4
20210224195525 78 230 7.0 14.8 0.00 0.00 0.00 69 1014.4
20210224195416 78 250 5.2 14.8 0.00 0.00 0.00 69 1014.5
20210224195405 78 283 6.1 14.8 0.00 0.00 0.00 70 1014.5
20210224195358 78 235 7.0 14.8 0.00 0.00 0.00 69 1014.5
20210224195349 78 248 7.8 14.8 0.00 0.00 0.00 69 1014.6
20210224195221 78 213 8.7 14.8 0.00 0.00 0.00 69 1014.5
20210224195104 78 264 7.8 14.8 0.00 0.00 0.00 68 1014.5
20210224194924 78 199 6.1 14.8 0.00 0.00 0.00 69 1014.5
20210224194711 78 199 6.1 14.8 0.00 0.00 0.00 69 1014.5
20210224194613 78 203 6.1 14.8 0.00 0.00 0.00 69 1014.5
20210224194523 78 223 7.8 14.8 0.00 0.00 0.00 69 1014.6
20210224194412 78 250 9.6 14.8 0.00 0.00 0.00 69 1014.6
20210224194312 78 196 8.7 14.8 0.00 0.00 0.00 69 1014.6
20210224194210 78 220 8.7 14.8 0.00 0.00 0.00 69 1014.6
20210224194110 78 214 9.6 14.8 0.00 0.00 0.00 69 1014.6
20210224194022 78 226 7.8 14.8 0.00 0.00 0.00 71 1014.6
20210224193910 78 213 7.0 13.0 0.00 0.00 0.00 71 1014.6
20210224193810 77 202 7.8 13.0 0.00 0.00 0.00 72 1014.7
20210224193714 77 192 7.0 13.0 0.00 0.00 0.00 71 1014.8
20210224193616 77 269 7.8 13.0 0.00 0.00 0.00 71 1014.7
20210224193536 77 209 7.8 13.0 0.00 0.00 0.00 71 1014.8
20210224193411 77 190 7.0 13.0 0.00 0.00 0.00 71 1014.7
20210224193311 77 192 7.0 13.0 0.00 0.00 0.00 71 1014.7
20210224193209 77 202 8.7 13.0 0.00 0.00 0.00 71 1014.8
20210224193111 77 238 7.8 13.0 0.00 0.00 0.00 71 1014.8
20210224193030 77 207 6.1 13.0 0.00 0.00 0.00 71 1014.8
20210224192926 77 223 5.2 13.0 0.00 0.00 0.00 71 1014.8
20210224192920 77 204 5.2 13.0 0.00 0.00 0.00 71 1014.8
20210224192909 77 185 6.1 13.0 0.00 0.00 0.00 71 1014.9
20210224192755 77 221 7.8 13.0 0.00 0.00 0.00 71 1014.9
20210224192556 77 214 7.0 13.0 0.00 0.00 0.00 71 1014.8
20210224192416 77 228 5.2 13.0 0.00 0.00 0.00 71 1014.9
20210224192316 77 220 3.5 13.0 0.00 0.00 0.00 70 1014.9
20210224192213 77 250 5.2 13.0 0.00 0.00 0.00 71 1014.9
20210224192111 77 220 6.1 13.0 0.00 0.00 0.00 71 1014.9
20210224192022 77 195 7.8 13.0 0.00 0.00 0.00 71 1014.9
20210224191911 77 183 7.8 13.0 0.00 0.00 0.00 71 1015.0
20210224191820 77 207 5.2 11.3 0.00 0.00 0.00 71 1014.9
20210224191710 77 189 3.5 10.4 0.00 0.00 0.00 72 1015.0
20210224191611 77 240 4.3 11.3 0.00 0.00 0.00 72 1015.0
20210224191524 77 209 5.2 12.2 0.00 0.00 0.00 72 1015.0
20210224191413 77 217 5.2 12.2 0.00 0.00 0.00 72 1015.0
20210224191310 77 193 6.1 12.2 0.00 0.00 0.00 72 1015.1
20210224191211 76 223 5.2 12.2 0.00 0.00 0.00 72 1015.1
20210224191112 76 230 5.2 12.2 0.00 0.00 0.00 72 1015.1
20210224191020 76 252 5.2 12.2 0.00 0.00 0.00 72 1015.1
20210224190911 76 252 7.0 12.2 0.00 0.00 0.00 72 1015.1
20210224190810 76 259 8.7 12.2 0.00 0.00 0.00 72 1015.1
20210224190718 76 248 7.8 12.2 0.00 0.00 0.00 73 1015.2
20210224190611 76 176 7.0 12.2 0.00 0.00 0.00 73 1015.3
20210224190517 76 227 6.1 12.2 0.00 0.00 0.00 73 1015.2
20210224190410 76 223 6.1 12.2 0.00 0.00 0.00 74 1015.2
20210224190313 76 235 7.0 11.3 0.00 0.00 0.00 74 1015.3
20210224190211 76 251 7.0 11.3 0.00 0.00 0.00 74 1015.3
20210224190111 76 207 6.1 11.3 0.00 0.00 0.00 74 1015.3
20210224190028 76 212 5.2 11.3 0.00 0.00 0.00 74 1015.3
20210224185911 76 248 3.5 11.3 0.00 0.00 0.00 74 1015.4
20210224185810 76 244 4.3 11.3 0.00 0.00 0.00 74 1015.4
20210224185714 76 235 6.1 11.3 0.00 0.00 0.00 73 1015.4
20210224185611 76 203 6.1 11.3 0.00 0.00 0.00 73 1015.4
20210224185516 76 200 6.1 11.3 0.00 0.00 0.00 73 1015.4
20210224185441 76 227 4.3 10.4 0.00 0.00 0.00 73 1015.4
20210224185422 76 180 4.3 11.3 0.00 0.00 0.00 73 1015.4
20210224185353 76 216 6.1 13.0 0.00 0.00 0.00 73 1015.4
20210224185340 76 216 6.1 13.0 0.00 0.00 0.00 73 1015.4
20210224185322 76 180 5.2 13.0 0.00 0.00 0.00 73 1015.3
20210224185120 76 227 6.1 13.0 0.00 0.00 0.00 73 1015.3
20210224184902 76 212 6.1 13.0 0.00 0.00 0.00 74 1015.3
20210224184710 76 209 6.1 13.0 0.00 0.00 0.00 73 1015.3
20210224184611 76 216 5.2 13.0 0.00 0.00 0.00 74 1015.4
20210224184524 76 189 7.0 13.0 0.00 0.00 0.00 74 1015.4
20210224184411 76 241 8.7 13.0 0.00 0.00 0.00 74 1015.4
20210224184310 76 216 8.7 13.0 0.00 0.00 0.00 74 1015.4
20210224184212 76 240 7.0 13.0 0.00 0.00 0.00 74 1015.4
20210224184114 76 220 6.1 12.2 0.00 0.00 0.00 74 1015.5
20210224184019 76 210 5.2 12.2 0.00 0.00 0.00 74 1015.5
20210224183911 76 234 5.2 12.2 0.00 0.00 0.00 74 1015.5
20210224183813 76 235 5.2 12.2 0.00 0.00 0.00 74 1015.6
20210224183711 76 223 6.1 12.2 0.00 0.00 0.00 74 1015.6
20210224183613 76 227 7.0 12.2 0.00 0.00 0.00 74 1015.5
20210224183523 76 248 7.0 12.2 0.00 0.00 0.00 74 1015.6
20210224183411 76 214 7.0 12.2 0.00 0.00 0.00 74 1015.6
20210224183310 76 179 6.1 10.4 0.00 0.00 0.00 74 1015.6
20210224183214 76 221 5.2 10.4 0.00 0.00 0.00 74 1015.6
20210224183115 76 262 4.3 10.4 0.00 0.00 0.00 74 1015.6
20210224183043 76 179 4.3 13.0 0.00 0.00 0.00 74 1015.6
20210224182911 76 252 5.2 13.0 0.00 0.00 0.00 74 1015.7
20210224182900 76 226 3.5 13.0 0.00 0.00 0.00 75 1015.7
20210224182834 76 233 3.5 13.0 0.00 0.00 0.00 75 1015.6
20210224182721 75 231 4.3 13.0 0.00 0.00 0.00 75 1015.6
20210224182610 75 233 6.1 13.0 0.00 0.00 0.00 75 1015.7
20210224182432 75 259 6.1 13.0 0.00 0.00 0.00 75 1015.7
20210224182317 75 207 5.2 13.0 0.00 0.00 0.00 75 1015.7
20210224182210 75 169 7.0 13.0 0.00 0.00 0.00 74 1015.8
20210224182111 75 178 7.0 13.0 0.00 0.00 0.00 75 1015.8
20210224182032 75 220 6.1 11.3 0.00 0.00 0.00 75 1015.7
20210224181910 75 231 6.1 11.3 0.00 0.00 0.00 74 1015.8
20210224181812 75 195 6.1 11.3 0.00 0.00 0.00 75 1015.8
20210224181719 75 230 5.2 11.3 0.00 0.00 0.00 74 1015.9
20210224181614 75 234 5.2 11.3 0.00 0.00 0.00 75 1015.9
20210224181529 75 220 7.0 11.3 0.00 0.00 0.00 74 1015.9
20210224181414 75 161 5.2 10.4 0.00 0.00 0.00 74 1015.9
20210224181312 75 195 4.3 10.4 0.00 0.00 0.00 75 1016.0
20210224181211 75 278 5.2 10.4 0.00 0.00 0.00 75 1016.0
20210224181114 75 203 6.1 10.4 0.00 0.00 0.00 75 1016.0
20210224181019 75 192 5.2 8.7 0.00 0.00 0.00 75 1016.0
20210224180912 75 219 6.1 8.7 0.00 0.00 0.00 75 1016.1
20210224180810 75 202 5.2 9.6 0.00 0.00 0.00 74 1016.1
20210224180711 75 189 4.3 9.6 0.00 0.00 0.00 74 1016.1
20210224180611 75 190 5.2 9.6 0.00 0.00 0.00 74 1016.2
20210224180527 75 227 5.2 9.6 0.00 0.00 0.00 74 1016.1
20210224180413 75 219 4.3 11.3 0.00 0.00 0.00 74 1016.1
20210224180314 75 209 3.5 11.3 0.00 0.00 0.00 74 1016.2
20210224180217 75 183 4.3 11.3 0.00 0.00 0.00 74 1016.2
20210224180123 75 188 4.3 11.3 0.00 0.00 0.00 74 1016.2
20210224180033 75 214 6.1 11.3 0.00 0.00 0.00 74 1016.2
20210224175911 75 213 5.2 11.3 0.00 0.00 0.00 74 1016.2
20210224175813 75 228 4.3 11.3 0.00 0.00 0.00 74 1016.2
20210224175711 75 247 4.3 11.3 0.00 0.00 0.00 74 1016.2
20210224175616 75 230 7.0 11.3 0.00 0.00 0.00 74 1016.2
20210224175523 75 169 6.1 11.3 0.00 0.00 0.00 74 1016.2
20210224175414 75 217 4.3 11.3 0.00 0.00 0.00 74 1016.3
20210224175342 75 237 5.2 11.3 0.00 0.00 0.00 74 1016.3
20210224175326 75 276 5.2 13.9 0.00 0.00 0.00 74 1016.2
20210224175300 75 220 5.2 13.9 0.00 0.00 0.00 75 1016.2
20210224175112 75 169 5.2 13.9 0.00 0.00 0.00 75 1016.3
20210224174938 75 219 6.1 13.9 0.00 0.00 0.00 75 1016.3
20210224174812 74 214 7.0 13.9 0.00 0.00 0.00 75 1016.3
20210224174714 74 276 7.8 13.9 0.00 0.00 0.00 75 1016.3
20210224174611 74 275 7.0 13.9 0.00 0.00 0.00 75 1016.4
20210224174532 74 226 7.0 13.9 0.00 0.00 0.00 75 1016.3
20210224174411 74 234 7.8 13.9 0.00 0.00 0.00 75 1016.4
20210224174311 74 243 7.8 13.9 0.00 0.00 0.00 75 1016.3
20210224174212 74 233 7.0 13.9 0.00 0.00 0.00 75 1016.4
20210224174114 74 231 8.7 13.9 0.00 0.00 0.00 75 1016.4
20210224174025 74 212 7.8 13.9 0.00 0.00 0.00 75 1016.4
20210224173910 74 244 7.8 13.9 0.00 0.00 0.00 75 1016.4
20210224173810 74 237 8.7 13.9 0.00 0.00 0.00 75 1016.5
20210224173711 74 203 7.8 13.9 0.00 0.00 0.00 75 1016.4
20210224173610 74 265 7.0 13.9 0.00 0.00 0.00 74 1016.4
20210224173518 74 217 6.1 13.9 0.00 0.00 0.00 74 1016.5
20210224173411 74 233 7.0 13.9 0.00 0.00 0.00 74 1016.5
20210224173311 74 245 7.8 13.9 0.00 0.00 0.00 74 1016.6
20210224173212 74 213 6.1 13.9 0.00 0.00 0.00 74 1016.5
20210224173110 74 281 6.1 13.9 0.00 0.00 0.00 74 1016.6
20210224173033 74 235 7.8 13.9 0.00 0.00 0.00 74 1016.7
20210224172911 74 257 8.7 13.9 0.00 0.00 0.00 74 1016.7
20210224172851 74 275 8.7 13.9 0.00 0.00 0.00 74 1016.6
20210224172806 74 259 7.0 13.9 0.00 0.00 0.00 74 1016.6
20210224172715 74 159 7.0 12.2 0.00 0.00 0.00 74 1016.7
20210224172534 74 206 7.8 15.6 0.00 0.00 0.00 74 1016.7
20210224172425 74 241 6.1 15.6 0.00 0.00 0.00 75 1016.7
20210224172312 74 283 4.3 15.6 0.00 0.00 0.00 75 1016.7
20210224172211 74 226 6.1 15.6 0.00 0.00 0.00 75 1016.7
20210224172111 74 226 7.0 16.5 0.00 0.00 0.00 76 1016.7
20210224172029 74 257 6.1 16.5 0.00 0.00 0.00 76 1016.7
20210224171914 74 274 5.2 16.5 0.00 0.00 0.00 76 1016.7
20210224171813 74 176 7.0 16.5 0.00 0.00 0.00 76 1016.6
20210224171753 74 220 9.6 18.2 0.00 0.00 0.00 76 1016.7
20210224171613 74 268 9.6 18.2 0.00 0.00 0.00 76 1016.7
20210224171523 74 259 7.8 18.2 0.00 0.00 0.00 76 1016.7
20210224171410 74 231 8.7 18.2 0.00 0.00 0.00 76 1016.6
20210224171313 74 210 10.4 18.2 0.00 0.00 0.00 76 1016.6
20210224171210 74 259 9.6 18.2 0.00 0.00 0.00 75 1016.6
20210224171110 74 243 7.8 18.2 0.00 0.00 0.00 75 1016.6
20210224171017 74 188 8.7 18.2 0.00 0.00 0.00 75 1016.5
20210224170911 74 240 9.6 18.2 0.00 0.00 0.00 75 1016.6
20210224170812 74 248 8.7 18.2 0.00 0.00 0.00 75 1016.5
20210224170711 74 188 8.7 16.5 0.00 0.00 0.00 75 1016.5
20210224170613 74 197 10.4 16.5 0.00 0.00 0.00 75 1016.5
20210224170522 74 224 9.6 16.5 0.00 0.00 0.00 75 1016.5
20210224170410 74 261 8.7 16.5 0.00 0.00 0.00 75 1016.6
20210224170312 74 233 8.7 16.5 0.00 0.00 0.00 75 1016.6
20210224170216 74 188 7.8 16.5 0.00 0.00 0.00 75 1016.5
20210224170110 74 223 7.0 13.9 0.00 0.00 0.00 75 1016.4
20210224170032 74 227 6.1 12.2 0.00 0.00 0.00 75 1016.5
20210224165913 74 219 4.3 11.3 0.00 0.00 0.00 75 1016.4
20210224165810 74 237 3.5 11.3 0.00 0.00 0.00 76 1016.5
20210224165710 74 210 4.3 11.3 0.00 0.00 0.00 76 1016.4
20210224165613 74 254 4.3 11.3 0.00 0.00 0.00 76 1016.5
20210224165531 74 221 6.1 11.3 0.00 0.00 0.00 75 1016.4
20210224165412 74 234 6.1 11.3 0.00 0.00 0.00 75 1016.4
20210224165316 74 183 6.1 10.4 0.00 0.00 0.00 75 1016.5
20210224165307 74 224 6.1 10.4 0.00 0.00 0.00 75 1016.4
20210224165230 74 183 5.2 14.8 0.00 0.00 0.00 75 1016.4
20210224165106 74 214 5.2 17.4 0.00 0.00 0.00 76 1016.3
20210224164941 74 206 5.2 17.4 0.00 0.00 0.00 76 1016.4
20210224164828 74 224 5.2 17.4 0.00 0.00 0.00 76 1016.4
20210224164711 74 210 6.1 17.4 0.00 0.00 0.00 75 1016.4
20210224164616 74 210 6.1 17.4 0.00 0.00 0.00 75 1016.4
20210224164523 74 210 6.1 17.4 0.00 0.00 0.00 75 1016.4
20210224164413 74 210 6.1 17.4 0.00 0.00 0.00 75 1016.4
20210224164311 74 188 8.7 17.4 0.00 0.00 0.00 75 1016.4
20210224164211 74 178 9.6 17.4 0.00 0.00 0.00 75 1016.4
20210224164121 74 196 7.0 17.4 0.00 0.00 0.00 76 1016.4
20210224164021 74 206 4.3 14.8 0.00 0.00 0.00 76 1016.4
20210224163912 74 186 4.3 14.8 0.00 0.00 0.00 76 1016.4
20210224163815 74 258 5.2 14.8 0.00 0.00 0.00 76 1016.4
20210224163710 74 203 5.2 14.8 0.00 0.00 0.00 76 1016.4
20210224163610 74 216 5.2 14.8 0.00 0.00 0.00 77 1016.4
20210224163523 74 226 5.2 14.8 0.00 0.00 0.00 77 1016.4
20210224163410 74 227 7.0 14.8 0.00 0.00 0.00 77 1016.5
20210224163312 74 204 8.7 14.8 0.00 0.00 0.00 77 1016.4
20210224163212 74 282 8.7 16.5 0.00 0.00 0.00 77 1016.4
20210224163112 74 213 7.8 16.5 0.00 0.00 0.00 77 1016.4
20210224163020 73 220 7.8 16.5 0.00 0.00 0.00 78 1016.4
20210224162912 73 219 8.7 16.5 0.00 0.00 0.00 78 1016.3
20210224162815 73 227 9.6 16.5 0.00 0.00 0.00 77 1016.3
20210224162729 73 207 9.6 16.5 0.00 0.00 0.00 77 1016.3
20210224162634 73 192 7.8 16.5 0.00 0.00 0.00 77 1016.4
20210224162543 73 220 7.8 16.5 0.00 0.00 0.00 77 1016.3
20210224162415 73 185 8.7 16.5 0.00 0.00 0.00 77 1016.3
20210224162312 73 210 9.6 16.5 0.00 0.00 0.00 77 1016.3
20210224162213 73 219 7.8 15.6 0.00 0.00 0.00 78 1016.3
20210224162117 73 203 7.0 15.6 0.00 0.00 0.00 78 1016.3
20210224162025 73 206 7.8 16.5 0.00 0.00 0.00 78 1016.3
20210224161915 73 274 7.8 16.5 0.00 0.00 0.00 78 1016.2
20210224161812 73 224 7.0 17.4 0.00 0.00 0.00 78 1016.2
20210224161710 73 244 7.8 17.4 0.00 0.00 0.00 79 1016.3
20210224161613 73 180 7.0 17.4 0.00 0.00 0.00 79 1016.2
20210224161524 73 195 6.1 17.4 0.00 0.00 0.00 79 1016.2
20210224161410 73 210 9.6 17.4 0.00 0.00 0.00 79 1016.2
20210224161311 73 228 11.3 17.4 0.00 0.00 0.00 79 1016.2
20210224161212 72 202 8.7 17.4 0.00 0.00 0.00 79 1016.2
20210224161116 73 214 8.7 17.4 0.00 0.00 0.00 79 1016.3
20210224161027 73 200 9.6 17.4 0.00 0.00 0.00 80 1016.2
20210224160912 73 185 7.8 17.4 0.00 0.00 0.00 80 1016.3
20210224160818 72 220 5.2 13.0 0.00 0.00 0.00 81 1016.3
20210224160711 72 230 7.8 13.0 0.00 0.00 0.00 81 1016.3
20210224160610 72 212 7.0 13.0 0.00 0.00 0.00 81 1016.2
20210224160522 72 224 7.0 13.0 0.00 0.00 0.00 81 1016.3
20210224160410 72 226 7.0 13.0 0.00 0.00 0.00 81 1016.3
20210224160311 72 221 7.0 13.0 0.00 0.00 0.00 81 1016.3
20210224160214 72 255 7.8 13.0 0.00 0.00 0.00 81 1016.3
20210224160112 72 220 8.7 13.0 0.00 0.00 0.00 81 1016.3
20210224160028 72 213 7.0 13.0 0.00 0.00 0.00 81 1016.3
20210224155913 72 154 5.2 11.3 0.00 0.00 0.00 82 1016.3
20210224155816 72 243 5.2 11.3 0.00 0.00 0.00 82 1016.3
20210224155711 72 197 6.1 11.3 0.00 0.00 0.00 82 1016.3
20210224155611 72 228 6.1 11.3 0.00 0.00 0.00 83 1016.3
20210224155522 71 248 5.2 11.3 0.00 0.00 0.00 83 1016.3
20210224155414 71 276 6.1 11.3 0.00 0.00 0.00 83 1016.2
20210224155346 71 283 5.2 11.3 0.00 0.00 0.00 83 1016.3
20210224155334 71 178 5.2 11.3 0.00 0.00 0.00 83 1016.2
20210224155231 71 227 7.0 11.3 0.00 0.00 0.00 83 1016.2
20210224155046 71 206 7.0 11.3 0.00 0.00 0.00 83 1016.3
20210224154943 71 209 6.1 11.3 0.00 0.00 0.00 84 1016.3
20210224154825 71 258 5.2 11.3 0.00 0.00 0.00 84 1016.3
20210224154728 71 265 6.1 11.3 0.00 0.00 0.00 84 1016.3
20210224154611 71 193 6.1 11.3 0.00 0.00 0.00 84 1016.2
20210224154523 71 195 4.3 11.3 0.00 0.00 0.00 84 1016.2
20210224154415 71 252 4.3 11.3 0.00 0.00 0.00 85 1016.2
20210224154310 71 237 6.1 11.3 0.00 0.00 0.00 85 1016.3
20210224154209 71 192 5.2 11.3 0.00 0.00 0.00 85 1016.3
20210224154115 71 189 5.2 11.3 0.00 0.00 0.00 85 1016.3
20210224154019 71 258 6.1 11.3 0.00 0.00 0.00 85 1016.2
20210224153911 71 228 6.1 11.3 0.00 0.00 0.00 85 1016.3
20210224153810 71 183 6.1 11.3 0.00 0.00 0.00 85 1016.2
20210224153710 71 192 4.3 9.6 0.00 0.00 0.00 85 1016.3
20210224153610 70 219 3.5 10.4 0.00 0.00 0.00 85 1016.2
20210224153524 70 268 4.3 13.9 0.00 0.00 0.00 85 1016.3
20210224153414 70 221 3.5 13.9 0.00 0.00 0.00 85 1016.3
20210224153310 70 180 3.5 13.9 0.00 0.00 0.00 86 1016.2
20210224153210 70 212 4.3 13.9 0.00 0.00 0.00 86 1016.2
20210224153112 70 227 5.2 13.9 0.00 0.00 0.00 86 1016.2
20210224153023 70 217 4.3 13.9 0.00 0.00 0.00 86 1016.2
20210224152910 70 204 6.1 13.9 0.00 0.00 0.00 86 1016.1
20210224152818 70 216 7.8 13.9 0.00 0.00 0.00 86 1016.1
20210224152723 70 188 7.8 13.9 0.00 0.00 0.00 86 1016.1
20210224152637 70 219 7.0 13.9 0.00 0.00 0.00 85 1016.0
20210224152544 70 202 7.0 11.3 0.00 0.00 0.00 85 1016.0
20210224152414 70 216 6.1 11.3 0.00 0.00 0.00 86 1016.0
20210224152321 70 206 7.0 10.4 0.00 0.00 0.00 86 1016.0
20210224152211 70 175 5.2 13.0 0.00 0.00 0.00 86 1016.0
20210224152111 70 186 5.2 13.0 0.00 0.00 0.00 86 1016.0
20210224152022 70 212 6.1 13.0 0.00 0.00 0.00 86 1016.1
20210224151911 69 230 5.2 13.0 0.00 0.00 0.00 86 1016.0
20210224151813 69 159 5.2 13.0 0.00 0.00 0.00 86 1015.9
20210224151720 69 186 5.2 13.0 0.00 0.00 0.00 86 1015.9
20210224151612 69 219 5.2 13.0 0.00 0.00 0.00 86 1016.0
20210224151524 69 206 5.2 13.0 0.00 0.00 0.00 86 1016.0
20210224151411 69 183 7.0 13.0 0.00 0.00 0.00 87 1015.9
20210224151310 69 182 6.1 13.0 0.00 0.00 0.00 87 1016.0
20210224151217 69 193 3.5 12.2 0.00 0.00 0.00 87 1016.0
20210224151121 69 213 3.5 12.2 0.00 0.00 0.00 87 1016.0
20210224151039 69 223 4.3 12.2 0.00 0.00 0.00 88 1016.0
20210224150915 68 231 4.3 12.2 0.00 0.00 0.00 88 1015.9
20210224150811 68 159 6.1 12.2 0.00 0.00 0.00 88 1016.0
20210224150712 68 216 7.0 12.2 0.00 0.00 0.00 88 1016.0
20210224150610 68 161 6.1 10.4 0.00 0.00 0.00 88 1015.9
20210224150519 68 210 5.2 10.4 0.00 0.00 0.00 88 1015.9
20210224150415 68 179 4.3 10.4 0.00 0.00 0.00 88 1016.0
20210224150315 68 179 4.3 10.4 0.00 0.00 0.00 88 1015.9
20210224150212 68 179 4.3 10.4 0.00 0.00 0.00 88 1016.0
20210224150111 68 213 4.3 10.4 0.00 0.00 0.00 88 1016.0
20210224150024 68 271 5.2 10.4 0.00 0.00 0.00 88 1016.0
20210224145914 67 200 5.2 10.4 0.00 0.00 0.00 88 1016.0
20210224145812 67 188 4.3 7.8 0.00 0.00 0.00 88 1016.0
20210224145709 67 227 3.5 7.8 0.00 0.00 0.00 88 1016.1
20210224145612 67 250 2.6 7.8 0.00 0.00 0.00 88 1016.0
20210224145521 67 179 3.5 7.8 0.00 0.00 0.00 88 1016.0
20210224145410 67 227 4.3 7.8 0.00 0.00 0.00 89 1016.0
20210224145325 67 193 4.3 7.8 0.00 0.00 0.00 89 1016.0
20210224145316 67 224 3.5 4.3 0.00 0.00 0.00 88 1015.9
20210224145301 66 189 1.7 9.6 0.00 0.00 0.00 88 1015.9
20210224145207 66 189 1.7 9.6 0.00 0.00 0.00 88 1015.9
20210224145059 66 189 1.7 9.6 0.00 0.00 0.00 88 1015.9
20210224144912 66 189 1.7 9.6 0.00 0.00 0.00 88 1015.9
20210224144711 66 224 2.6 9.6 0.00 0.00 0.00 88 1015.9
20210224144612 66 224 2.6 9.6 0.00 0.00 0.00 88 1016.0
20210224144521 66 224 2.6 9.6 0.00 0.00 0.00 88 1015.8
20210224144411 66 207 2.6 9.6 0.00 0.00 0.00 88 1015.9
20210224144312 66 196 3.5 9.6 0.00 0.00 0.00 88 1015.9
20210224144209 66 188 3.5 9.6 0.00 0.00 0.00 88 1015.9
20210224144110 66 197 2.6 7.8 0.00 0.00 0.00 88 1015.9
20210224144019 65 154 2.6 7.8 0.00 0.00 0.00 89 1015.7
20210224143912 65 144 1.7 7.8 0.00 0.00 0.00 89 1015.8
20210224143810 65 169 1.7 7.8 0.00 0.00 0.00 89 1015.8
20210224143710 65 200 1.7 7.8 0.00 0.00 0.00 89 1015.8
20210224143613 65 159 1.7 7.8 0.00 0.00 0.00 89 1015.8
20210224143520 65 186 2.6 7.8 0.00 0.00 0.00 89 1015.8
20210224143410 65 202 3.5 7.8 0.00 0.00 0.00 89 1015.7
20210224143312 65 166 4.3 7.8 0.00 0.00 0.00 89 1015.7
20210224143210 65 183 4.3 6.1 0.00 0.00 0.00 89 1015.7
20210224143110 65 180 3.5 6.1 0.00 0.00 0.00 89 1015.6
20210224143025 65 169 3.5 6.1 0.00 0.00 0.00 89 1015.6
20210224142915 65 97 2.6 6.1 0.00 0.00 0.00 89 1015.7
20210224142909 64 179 2.6 6.1 0.00 0.00 0.00 89 1015.7
20210224142904 64 186 2.6 6.1 0.00 0.00 0.00 89 1015.7
20210224142806 64 178 3.5 6.1 0.00 0.00 0.00 90 1015.7
20210224142620 64 251 2.6 5.2 0.00 0.00 0.00 90 1015.7
20210224142425 64 185 2.6 5.2 0.00 0.00 0.00 90 1015.7
20210224142313 64 182 2.6 5.2 0.00 0.00 0.00 90 1015.7
20210224142212 64 197 2.6 5.2 0.00 0.00 0.00 90 1015.7
20210224142109 64 140 3.5 5.2 0.00 0.00 0.00 90 1015.6
20210224142021 64 175 3.5 5.2 0.00 0.00 0.00 90 1015.6
20210224141906 64 180 3.5 5.2 0.00 0.00 0.00 90 1015.6
20210224141801 64 195 1.7 5.2 0.00 0.00 0.00 90 1015.6
20210224141700 64 195 0.9 3.5 0.00 0.00 0.00 90 1015.6
20210224141559 64 140 2.6 3.5 0.00 0.00 0.00 90 1015.6
20210224141500 64 157 2.6 3.5 0.00 0.00 0.00 90 1015.6
20210224141356 64 158 1.7 3.5 0.00 0.00 0.00 90 1015.6
20210224141256 64 124 1.7 3.5 0.00 0.00 0.00 90 1015.5
20210224141153 64 183 1.7 3.5 0.00 0.00 0.00 90 1015.5
20210224141052 64 166 1.7 3.5 0.00 0.00 0.00 90 1015.5
20210224140952 64 152 0.9 3.5 0.00 0.00 0.00 90 1015.5
20210224140851 63 138 0.9 3.5 0.00 0.00 0.00 90 1015.5
20210224140752 63 121 1.7 3.5 0.00 0.00 0.00 90 1015.6
20210224140652 63 99 1.7 3.5 0.00 0.00 0.00 91 1015.5
20210224140559 63 185 0.9 3.5 0.00 0.00 0.00 91 1015.5
20210224140453 63 166 0.9 3.5 0.00 0.00 0.00 91 1015.5
20210224140353 63 164 1.7 3.5 0.00 0.00 0.00 91 1015.5
20210224140252 63 161 1.7 3.5 0.00 0.00 0.00 91 1015.5
20210224140152 63 214 1.7 3.5 0.00 0.00 0.00 90 1015.5
20210224140052 63 138 2.6 3.5 0.00 0.00 0.00 90 1015.5
20210224135951 63 152 1.7 3.5 0.00 0.00 0.00 91 1015.4
20210224135853 63 165 1.7 3.5 0.00 0.00 0.00 91 1015.5
20210224135753 63 165 1.7 3.5 0.00 0.00 0.00 91 1015.5
20210224135651 63 173 1.7 3.5 0.00 0.00 0.00 91 1015.5
20210224135555 63 166 0.9 3.5 0.00 0.00 0.00 91 1015.5
20210224135450 63 158 1.7 3.5 0.00 0.00 0.00 91 1015.5
20210224135350 63 165 1.7 3.5 0.00 0.00 0.00 91 1015.5
20210224135257 63 169 0.9 3.5 0.00 0.00 0.00 91 1015.4
20210224135152 62 165 0.9 3.5 0.00 0.00 0.00 91 1015.5
20210224135052 62 165 0.9 3.5 0.00 0.00 0.00 91 1015.5
20210224134952 62 175 0.9 3.5 0.00 0.00 0.00 91 1015.5
20210224134852 62 157 0.9 3.5 0.00 0.00 0.00 91 1015.5
20210224134750 62 103 1.7 3.5 0.00 0.00 0.00 91 1015.5
20210224134650 62 161 1.7 3.5 0.00 0.00 0.00 91 1015.5
20210224134553 62 103 1.7 4.3 0.00 0.00 0.00 91 1015.4
20210224134454 62 161 1.7 4.3 0.00 0.00 0.00 91 1015.3
20210224134353 62 164 1.7 4.3 0.00 0.00 0.00 91 1015.4
20210224134250 62 166 1.7 4.3 0.00 0.00 0.00 91 1015.4
20210224134150 62 159 0.9 4.3 0.00 0.00 0.00 91 1015.4
20210224134051 62 124 0.9 4.3 0.00 0.00 0.00 91 1015.5
20210224133951 62 169 0.9 4.3 0.00 0.00 0.00 91 1015.3
20210224133853 62 145 1.7 4.3 0.00 0.00 0.00 91 1015.4
20210224133753 62 141 1.7 4.3 0.00 0.00 0.00 91 1015.3
20210224133653 62 182 1.7 4.3 0.00 0.00 0.00 91 1015.3
20210224133556 62 144 1.7 3.5 0.00 0.00 0.00 91 1015.4
20210224133457 62 168 1.7 3.5 0.00 0.00 0.00 91 1015.4
20210224133351 62 159 0.9 3.5 0.00 0.00 0.00 91 1015.4
20210224133252 62 196 0.9 3.5 0.00 0.00 0.00 91 1015.4
20210224133155 62 233 0.9 3.5 0.00 0.00 0.00 91 1015.3
20210224133110 62 130 0.0 3.5 0.00 0.00 0.00 91 1015.4
20210224133039 62 165 0.0 3.5 0.00 0.00 0.00 91 1015.4
20210224133026 62 164 1.7 3.5 0.00 0.00 0.00 91 1015.3
20210224132950 62 186 1.7 3.5 0.00 0.00 0.00 91 1015.3
20210224132935 62 169 0.9 2.6 0.00 0.00 0.00 91 1015.3
20210224132751 62 171 0.9 2.6 0.00 0.00 0.00 91 1015.3
20210224132600 61 164 0.9 2.6 0.00 0.00 0.00 91 1015.3
20210224132438 61 159 0.9 2.6 0.00 0.00 0.00 91 1015.3
20210224132252 61 135 1.7 2.6 0.00 0.00 0.00 91 1015.2
20210224132156 61 133 1.7 2.6 0.00 0.00 0.00 91 1015.3
20210224132052 61 128 1.7 2.6 0.00 0.00 0.00 91 1015.3
20210224131953 61 149 0.9 2.6 0.00 0.00 0.00 91 1015.3
20210224131851 61 161 0.9 2.6 0.00 0.00 0.00 91 1015.3
20210224131750 61 147 0.9 2.6 0.00 0.00 0.00 91 1015.2
20210224131650 61 134 1.7 3.5 0.00 0.00 0.00 91 1015.2
20210224131552 61 141 1.7 3.5 0.00 0.00 0.00 91 1015.2
20210224131449 61 176 0.9 3.5 0.00 0.00 0.00 91 1015.2
20210224131351 61 144 0.0 3.5 0.00 0.00 0.00 91 1015.2
20210224131251 61 157 0.9 3.5 0.00 0.00 0.00 91 1015.2
20210224131151 61 179 0.9 3.5 0.00 0.00 0.00 91 1015.2
20210224131051 61 169 0.9 3.5 0.00 0.00 0.00 91 1015.1
20210224130951 61 161 0.9 3.5 0.00 0.00 0.00 91 1015.1
20210224130850 61 171 1.7 3.5 0.00 0.00 0.00 91 1015.1
20210224130750 61 168 1.7 3.5 0.00 0.00 0.00 91 1015.1
20210224130655 61 171 0.9 3.5 0.00 0.00 0.00 91 1015.1
20210224130613 61 152 1.7 3.5 0.00 0.00 0.00 91 1015.1
20210224130500 61 166 1.7 3.5 0.00 0.00 0.00 91 1015.2
20210224130358 61 157 1.7 3.5 0.00 0.00 0.00 91 1015.2
20210224130250 61 182 1.7 3.5 0.00 0.00 0.00 91 1015.2
20210224130151 61 155 1.7 3.5 0.00 0.00 0.00 91 1015.1
20210224130106 61 166 1.7 4.3 0.00 0.00 0.00 91 1015.1
20210224125952 61 165 1.7 4.3 0.00 0.00 0.00 91 1015.2
20210224125854 61 154 1.7 4.3 0.00 0.00 0.00 91 1015.1
20210224125751 61 127 0.9 4.3 0.00 0.00 0.00 91 1015.1
20210224125654 61 124 0.9 4.3 0.00 0.00 0.00 91 1015.1
20210224125629 61 178 1.7 4.3 0.00 0.00 0.00 91 1015.0
20210224125602 61 182 0.9 4.3 0.00 0.00 0.00 91 1015.0
20210224125538 60 172 1.7 4.3 0.00 0.00 0.00 91 1015.1
20210224125455 61 152 1.7 4.3 0.00 0.00 0.00 91 1015.1
20210224125426 61 145 1.7 4.3 0.00 0.00 0.00 91 1015.0
20210224125359 61 137 1.7 3.5 0.00 0.00 0.00 91 1015.1
20210224125205 61 135 1.7 3.5 0.00 0.00 0.00 91 1015.0
20210224125050 61 92 1.7 3.5 0.00 0.00 0.00 91 1015.0
20210224124821 61 157 1.7 3.5 0.00 0.00 0.00 91 1015.1
20210224124650 61 100 1.7 3.5 0.00 0.00 0.00 91 1015.0
20210224124606 61 158 0.9 3.5 0.00 0.00 0.00 91 1015.1
20210224124449 60 151 1.7 3.5 0.00 0.00 0.00 91 1015.1
20210224124350 60 162 1.7 3.5 0.00 0.00 0.00 91 1015.0
20210224124251 60 137 0.9 2.6 0.00 0.00 0.00 91 1015.1
20210224124154 60 134 0.9 2.6 0.00 0.00 0.00 91 1015.0
20210224124055 60 109 0.9 2.6 0.00 0.00 0.00 91 1015.0
20210224123949 60 109 0.9 2.6 0.00 0.00 0.00 91 1015.0
20210224123854 60 109 0.9 2.6 0.00 0.00 0.00 91 1015.0
20210224123754 60 109 0.9 2.6 0.00 0.00 0.00 91 1015.0
20210224123650 60 114 1.7 2.6 0.00 0.00 0.00 91 1015.0
20210224123553 60 107 1.7 2.6 0.00 0.00 0.00 91 1014.9
20210224123452 60 120 0.9 2.6 0.00 0.00 0.00 91 1015.1
20210224123354 60 116 0.9 2.6 0.00 0.00 0.00 91 1015.1
20210224123256 60 116 0.9 2.6 0.00 0.00 0.00 91 1015.0
20210224123150 60 120 0.9 2.6 0.00 0.00 0.00 91 1015.0
20210224123106 60 131 0.9 2.6 0.00 0.00 0.00 91 1015.0
20210224123037 60 131 1.7 2.6 0.00 0.00 0.00 91 1014.9
20210224123024 60 109 1.7 2.6 0.00 0.00 0.00 91 1014.9
20210224122948 60 123 1.7 2.6 0.00 0.00 0.00 91 1014.9
20210224122925 60 117 1.7 2.6 0.00 0.00 0.00 91 1014.9
20210224122817 60 103 0.9 2.6 0.00 0.00 0.00 91 1015.0
20210224122552 60 90 0.9 2.6 0.00 0.00 0.00 91 1015.0
20210224122404 60 113 0.9 3.5 0.00 0.00 0.00 91 1015.0
20210224122249 60 86 0.9 3.5 0.00 0.00 0.00 91 1014.9
20210224122151 60 166 0.9 3.5 0.00 0.00 0.00 91 1015.0
20210224122048 60 138 1.7 3.5 0.00 0.00 0.00 91 1015.0
20210224121950 60 164 1.7 3.5 0.00 0.00 0.00 91 1014.9
20210224121850 60 131 1.7 3.5 0.00 0.00 0.00 90 1014.9
20210224121750 60 114 1.7 3.5 0.00 0.00 0.00 90 1014.9
20210224121650 60 137 1.7 3.5 0.00 0.00 0.00 90 1014.9
20210224121550 60 134 1.7 3.5 0.00 0.00 0.00 90 1015.0
20210224121450 60 124 1.7 3.5 0.00 0.00 0.00 90 1015.0
20210224121349 60 124 0.9 1.7 0.00 0.00 0.00 90 1015.0
20210224121249 60 141 0.9 1.7 0.00 0.00 0.00 90 1014.9
20210224121150 60 138 0.9 1.7 0.00 0.00 0.00 91 1015.0
20210224121051 60 138 1.7 1.7 0.00 0.00 0.00 90 1014.9
20210224120953 60 144 0.9 1.7 0.00 0.00 0.00 90 1014.9
20210224120849 60 144 0.9 1.7 0.00 0.00 0.00 90 1014.9
20210224120750 60 144 0.9 1.7 0.00 0.00 0.00 90 1014.9
20210224120649 60 144 0.9 1.7 0.00 0.00 0.00 90 1014.9
20210224120550 60 144 0.9 1.7 0.00 0.00 0.00 90 1014.9
20210224120451 60 144 0.9 1.7 0.00 0.00 0.00 90 1014.9
20210224120352 60 144 0.9 1.7 0.00 0.00 0.00 90 1014.8
20210224120250 60 144 0.9 1.7 0.00 0.00 0.00 90 1014.9
20210224120158 60 144 0.9 1.7 0.00 0.00 0.00 90 1014.8
20210224120050 60 144 0.9 1.7 0.00 0.00 0.00 90 1014.8
20210224115948 60 144 0.9 1.7 0.00 0.00 0.00 90 1014.8
20210224115853 60 137 0.9 1.7 0.00 0.00 0.00 90 1014.8
20210224115753 60 133 0.9 1.7 0.00 0.00 0.00 90 1014.8
20210224115656 60 137 0.0 1.7 0.00 0.00 0.00 90 1014.8
20210224115550 60 137 0.9 1.7 0.00 0.00 0.00 90 1014.8
20210224115448 60 137 0.9 2.6 0.00 0.00 0.00 90 1014.8
20210224115421 60 137 0.9 2.6 0.00 0.00 0.00 90 1014.8
20210224115359 60 116 0.9 2.6 0.00 0.00 0.00 90 1014.8
20210224115346 60 116 1.7 2.6 0.00 0.00 0.00 90 1014.8
20210224115330 60 116 1.7 2.6 0.00 0.00 0.00 90 1014.7
20210224115210 60 116 1.7 3.5 0.00 0.00 0.00 90 1014.7
20210224115028 60 116 1.7 3.5 0.00 0.00 0.00 90 1014.8
20210224114818 60 116 1.7 3.5 0.00 0.00 0.00 90 1014.8
20210224114649 60 118 1.7 3.5 0.00 0.00 0.00 90 1014.7
20210224114548 60 118 1.7 3.5 0.00 0.00 0.00 90 1014.7
20210224114449 60 118 1.7 3.5 0.00 0.00 0.00 90 1014.6
20210224114349 60 125 1.7 3.5 0.00 0.00 0.00 90 1014.7
20210224114252 60 125 1.7 3.5 0.00 0.00 0.00 90 1014.6
20210224114152 60 120 1.7 3.5 0.00 0.00 0.00 90 1014.7
20210224114048 60 111 1.7 3.5 0.00 0.00 0.00 90 1014.7
20210224113950 60 117 1.7 2.6 0.00 0.00 0.00 90 1014.7
20210224113849 60 114 1.7 2.6 0.00 0.00 0.00 90 1014.7
20210224113748 60 114 1.7 2.6 0.00 0.00 0.00 90 1014.7
20210224113649 60 114 1.7 2.6 0.00 0.00 0.00 90 1014.6
20210224113548 60 114 1.7 2.6 0.00 0.00 0.00 90 1014.7
20210224113448 60 118 1.7 2.6 0.00 0.00 0.00 90 1014.7
20210224113348 60 118 1.7 2.6 0.00 0.00 0.00 90 1014.7
20210224113247 59 113 1.7 2.6 0.00 0.00 0.00 90 1014.6
20210224113149 59 123 1.7 2.6 0.00 0.00 0.00 90 1014.6
20210224113049 59 123 1.7 2.6 0.00 0.00 0.00 90 1014.6
20210224112950 59 123 1.7 2.6 0.00 0.00 0.00 90 1014.6
20210224112854 59 123 1.7 2.6 0.00 0.00 0.00 90 1014.6
20210224112814 59 123 1.7 2.6 0.00 0.00 0.00 90 1014.6
20210224112715 59 123 1.7 2.6 0.00 0.00 0.00 90 1014.5
20210224112612 59 123 1.7 2.6 0.00 0.00 0.00 90 1014.6
20210224112449 59 123 1.7 2.6 0.00 0.00 0.00 90 1014.5
20210224112353 59 117 1.7 2.6 0.00 0.00 0.00 90 1014.5
20210224112249 59 123 1.7 2.6 0.00 0.00 0.00 90 1014.5
20210224112148 59 125 1.7 2.6 0.00 0.00 0.00 90 1014.4
20210224112047 59 128 1.7 2.6 0.00 0.00 0.00 90 1014.5
20210224111948 59 128 1.7 2.6 0.00 0.00 0.00 90 1014.4
20210224111847 59 128 0.9 2.6 0.00 0.00 0.00 90 1014.4
20210224111751 59 128 0.9 2.6 0.00 0.00 0.00 90 1014.3
20210224111650 59 128 0.9 2.6 0.00 0.00 0.00 90 1014.3
20210224111549 59 128 0.9 2.6 0.00 0.00 0.00 90 1014.3
20210224111449 59 128 0.9 2.6 0.00 0.00 0.00 90 1014.3
20210224111349 59 128 1.7 2.6 0.00 0.00 0.00 90 1014.3
20210224111250 59 128 1.7 2.6 0.00 0.00 0.00 90 1014.3
20210224111148 59 128 1.7 2.6 0.00 0.00 0.00 90 1014.3
20210224111052 59 128 1.7 2.6 0.00 0.00 0.00 90 1014.3
20210224110948 59 128 1.7 2.6 0.00 0.00 0.00 90 1014.3
20210224110847 59 128 1.7 2.6 0.00 0.00 0.00 90 1014.2
20210224110748 59 128 1.7 2.6 0.00 0.00 0.00 90 1014.2
20210224110649 59 128 1.7 2.6 0.00 0.00 0.00 90 1014.2
20210224110549 59 144 0.9 2.6 0.00 0.00 0.00 90 1014.3
20210224110448 59 144 0.9 2.6 0.00 0.00 0.00 90 1014.2
20210224110347 59 144 0.9 2.6 0.00 0.00 0.00 90 1014.2
20210224110257 59 138 1.7 2.6 0.00 0.00 0.00 90 1014.2
20210224110148 59 141 1.7 2.6 0.00 0.00 0.00 90 1014.2
20210224110052 59 161 1.7 2.6 0.00 0.00 0.00 90 1014.1
20210224105954 59 161 0.9 2.6 0.00 0.00 0.00 90 1014.1
20210224105848 59 161 0.9 2.6 0.00 0.00 0.00 90 1014.1
20210224105750 59 161 0.9 2.6 0.00 0.00 0.00 90 1014.1
20210224105647 59 161 0.9 2.6 0.00 0.00 0.00 90 1014.1
20210224105548 59 161 1.7 2.6 0.00 0.00 0.00 90 1014.0
20210224105447 59 149 1.7 2.6 0.00 0.00 0.00 89 1014.0
20210224105346 59 148 0.9 2.6 0.00 0.00 0.00 89 1014.0
20210224105326 59 149 1.7 2.6 0.00 0.00 0.00 89 1013.9
20210224105315 59 124 1.7 3.5 0.00 0.00 0.00 89 1014.0
20210224105151 59 124 1.7 3.5 0.00 0.00 0.00 89 1013.9
20210224105012 59 118 1.7 3.5 0.00 0.00 0.00 89 1013.9
20210224104900 59 127 1.7 3.5 0.00 0.00 0.00 89 1013.9
20210224104755 59 134 1.7 3.5 0.00 0.00 0.00 89 1014.0
20210224104648 59 134 1.7 3.5 0.00 0.00 0.00 89 1014.0
20210224104547 59 131 1.7 3.5 0.00 0.00 0.00 89 1013.9
20210224104449 59 140 1.7 3.5 0.00 0.00 0.00 89 1014.0
20210224104348 59 140 1.7 3.5 0.00 0.00 0.00 90 1014.0
20210224104247 59 116 2.6 3.5 0.00 0.00 0.00 89 1013.9
20210224104148 59 123 1.7 3.5 0.00 0.00 0.00 89 1013.9
20210224104047 59 114 1.7 2.6 0.00 0.00 0.00 89 1013.9
20210224103947 59 114 1.7 2.6 0.00 0.00 0.00 89 1013.9
20210224103846 59 124 1.7 3.5 0.00 0.00 0.00 89 1013.9
20210224103748 59 134 0.9 3.5 0.00 0.00 0.00 89 1013.9
20210224103646 59 152 0.9 3.5 0.00 0.00 0.00 89 1013.9
20210224103550 59 141 0.9 3.5 0.00 0.00 0.00 89 1013.9
20210224103447 59 141 0.9 3.5 0.00 0.00 0.00 89 1014.0
20210224103347 59 124 0.9 3.5 0.00 0.00 0.00 89 1013.9
20210224103247 59 124 1.7 3.5 0.00 0.00 0.00 89 1013.9
20210224103147 59 121 1.7 3.5 0.00 0.00 0.00 89 1014.0
20210224103048 59 124 2.6 3.5 0.00 0.00 0.00 89 1013.9
20210224102948 59 138 1.7 3.5 0.00 0.00 0.00 89 1014.0
20210224102850 59 125 1.7 3.5 0.00 0.00 0.00 89 1013.9
20210224102835 59 137 1.7 3.5 0.00 0.00 0.00 89 1013.9
20210224102803 59 133 2.6 3.5 0.00 0.00 0.00 89 1013.9
20210224102731 59 120 1.7 3.5 0.00 0.00 0.00 89 1014.0
20210224102545 59 121 1.7 3.5 0.00 0.00 0.00 89 1013.9
20210224102426 59 118 2.6 3.5 0.00 0.00 0.00 89 1013.9
20210224102251 59 116 1.7 3.5 0.00 0.00 0.00 89 1013.9
20210224102145 59 113 1.7 3.5 0.00 0.00 0.00 89 1014.0
20210224102047 59 117 1.7 3.5 0.00 0.00 0.00 89 1014.0
20210224101949 59 114 1.7 3.5 0.00 0.00 0.00 89 1014.0
20210224101851 59 113 1.7 3.5 0.00 0.00 0.00 89 1014.0
20210224101746 59 114 1.7 3.5 0.00 0.00 0.00 89 1014.0
20210224101647 59 107 1.7 3.5 0.00 0.00 0.00 89 1014.0
20210224101555 59 134 1.7 3.5 0.00 0.00 0.00 89 1013.9
20210224101446 59 137 1.7 2.6 0.00 0.00 0.00 89 1013.9
20210224101348 59 137 0.9 2.6 0.00 0.00 0.00 89 1013.9
20210224101247 59 137 0.9 3.5 0.00 0.00 0.00 89 1014.0
20210224101146 59 137 0.9 3.5 0.00 0.00 0.00 89 1014.0
20210224101046 59 137 1.7 3.5 0.00 0.00 0.00 89 1014.0
20210224100948 59 148 1.7 3.5 0.00 0.00 0.00 88 1014.0
20210224100846 59 140 1.7 3.5 0.00 0.00 0.00 88 1014.0
20210224100746 59 149 1.7 3.5 0.00 0.00 0.00 88 1014.0
20210224100648 59 147 1.7 3.5 0.00 0.00 0.00 88 1013.9
20210224100551 59 164 1.7 3.5 0.00 0.00 0.00 88 1013.9
20210224100449 59 141 1.7 3.5 0.00 0.00 0.00 88 1013.9
20210224100348 59 154 1.7 3.5 0.00 0.00 0.00 88 1013.9
20210224100247 59 144 1.7 3.5 0.00 0.00 0.00 88 1013.9
20210224100145 59 145 1.7 3.5 0.00 0.00 0.00 88 1013.9
20210224100110 59 144 1.7 3.5 0.00 0.00 0.00 88 1014.0
20210224095948 59 197 1.7 3.5 0.00 0.00 0.00 88 1014.0
20210224095847 59 190 1.7 3.5 0.00 0.00 0.00 88 1014.1
20210224095746 59 162 0.9 3.5 0.00 0.00 0.00 88 1014.0
20210224095646 59 155 0.0 3.5 0.00 0.00 0.00 88 1014.0
20210224095546 59 169 0.0 3.5 0.00 0.00 0.00 88 1014.1
20210224095445 59 155 0.9 3.5 0.00 0.00 0.00 88 1014.0
20210224095345 59 155 1.7 3.5 0.00 0.00 0.00 88 1014.0
20210224095325 59 135 1.7 3.5 0.00 0.00 0.00 88 1014.0
20210224095257 59 120 0.9 3.5 0.00 0.00 0.00 88 1014.1
20210224095224 59 109 0.9 5.2 0.00 0.00 0.00 88 1014.0
20210224095121 59 151 1.7 5.2 0.00 0.00 0.00 88 1013.9
20210224094944 59 157 1.7 5.2 0.00 0.00 0.00 88 1014.0
20210224094811 59 142 1.7 5.2 0.00 0.00 0.00 88 1014.0
20210224094646 59 89 2.6 5.2 0.00 0.00 0.00 88 1014.0
20210224094547 59 89 2.6 5.2 0.00 0.00 0.00 88 1014.0
20210224094448 59 89 2.6 5.2 0.00 0.00 0.00 88 1014.0
20210224094347 59 89 2.6 5.2 0.00 0.00 0.00 88 1014.0
20210224094247 59 80 2.6 5.2 0.00 0.00 0.00 88 1014.0
20210224094147 59 124 1.7 5.2 0.00 0.00 0.00 88 1014.0
20210224094046 59 117 1.7 4.3 0.00 0.00 0.00 88 1014.0
20210224093947 59 131 1.7 5.2 0.00 0.00 0.00 88 1014.1
20210224093851 59 121 0.9 5.2 0.00 0.00 0.00 88 1014.1
20210224093745 59 162 0.9 5.2 0.00 0.00 0.00 88 1014.0
20210224093646 59 137 1.7 5.2 0.00 0.00 0.00 88 1014.1
20210224093545 59 140 1.7 5.2 0.00 0.00 0.00 88 1014.1
20210224093446 59 161 1.7 5.2 0.00 0.00 0.00 88 1014.1
20210224093347 59 164 1.7 5.2 0.00 0.00 0.00 88 1014.1
20210224093246 59 128 2.6 5.2 0.00 0.00 0.00 88 1014.1
20210224093150 59 183 2.6 5.2 0.00 0.00 0.00 88 1014.1
20210224093046 59 166 1.7 5.2 0.00 0.00 0.00 88 1014.2
20210224092945 59 102 1.7 4.3 0.00 0.00 0.00 88 1014.1
20210224092850 59 193 1.7 4.3 0.00 0.00 0.00 88 1014.1
20210224092746 59 155 1.7 4.3 0.00 0.00 0.00 88 1014.2
20210224092710 59 192 1.7 4.3 0.00 0.00 0.00 89 1014.2
20210224092624 59 162 1.7 4.3 0.00 0.00 0.00 89 1014.1
20210224092532 59 168 2.6 4.3 0.00 0.00 0.00 89 1014.2
20210224092408 59 168 2.6 4.3 0.00 0.00 0.00 89 1014.2
20210224092248 59 179 2.6 4.3 0.00 0.00 0.00 89 1014.2
20210224092147 59 157 1.7 4.3 0.00 0.00 0.00 89 1014.2
20210224092048 59 204 1.7 3.5 0.00 0.00 0.00 89 1014.2
20210224091945 59 164 1.7 3.5 0.00 0.00 0.00 89 1014.2
20210224091845 59 176 1.7 3.5 0.00 0.00 0.00 89 1014.2
20210224091749 59 165 1.7 3.5 0.00 0.00 0.00 89 1014.2
20210224091648 59 113 1.7 3.5 0.00 0.00 0.00 89 1014.3
20210224091553 58 133 1.7 3.5 0.00 0.00 0.00 89 1014.3
20210224091449 58 151 1.7 3.5 0.00 0.00 0.00 88 1014.3
20210224091346 58 149 0.9 3.5 0.00 0.00 0.00 88 1014.3
20210224091244 58 161 1.7 4.3 0.00 0.00 0.00 88 1014.2
20210224091145 58 154 1.7 4.3 0.00 0.00 0.00 88 1014.3
20210224091049 58 171 1.7 4.3 0.00 0.00 0.00 88 1014.2
20210224090946 58 144 1.7 4.3 0.00 0.00 0.00 88 1014.3
20210224090844 59 147 0.9 4.3 0.00 0.00 0.00 88 1014.3
20210224090746 59 148 0.9 4.3 0.00 0.00 0.00 88 1014.1
20210224090647 59 138 1.7 4.3 0.00 0.00 0.00 88 1014.2
20210224090545 59 151 1.7 4.3 0.00 0.00 0.00 88 1014.2
20210224090445 59 133 1.7 4.3 0.00 0.00 0.00 88 1014.3
20210224090344 59 137 2.6 4.3 0.00 0.00 0.00 88 1014.2
20210224090244 59 131 1.7 3.5 0.00 0.00 0.00 88 1014.2
20210224090147 59 165 1.7 3.5 0.00 0.00 0.00 88 1014.2
20210224090047 59 155 0.9 3.5 0.00 0.00 0.00 88 1014.2
20210224085945 59 134 0.9 3.5 0.00 0.00 0.00 88 1014.2
20210224085845 58 144 1.7 3.5 0.00 0.00 0.00 88 1014.3
20210224085746 58 144 1.7 3.5 0.00 0.00 0.00 88 1014.3
20210224085645 59 166 1.7 4.3 0.00 0.00 0.00 88 1014.2
20210224085544 59 145 0.9 4.3 0.00 0.00 0.00 88 1014.2
20210224085445 59 154 1.7 4.3 0.00 0.00 0.00 88 1014.2
20210224085345 59 144 1.7 4.3 0.00 0.00 0.00 88 1014.2
20210224085330 59 140 0.9 4.3 0.00 0.00 0.00 88 1014.2
20210224085318 59 173 1.7 4.3 0.00 0.00 0.00 88 1014.2
20210224085255 59 195 1.7 4.3 0.00 0.00 0.00 88 1014.2
20210224085120 59 141 1.7 4.3 0.00 0.00 0.00 88 1014.2
20210224085010 59 166 2.6 4.3 0.00 0.00 0.00 88 1014.2
20210224084817 59 159 1.7 4.3 0.00 0.00 0.00 88 1014.2
20210224084651 59 142 1.7 4.3 0.00 0.00 0.00 88 1014.2
20210224084626 59 189 1.7 4.3 0.00 0.00 0.00 88 1014.2
20210224084448 59 127 2.6 4.3 0.00 0.00 0.00 88 1014.2
20210224084346 59 149 2.6 4.3 0.00 0.00 0.00 88 1014.1
20210224084245 59 125 2.6 4.3 0.00 0.00 0.00 87 1014.2
20210224084146 59 138 1.7 5.2 0.00 0.00 0.00 87 1014.2
20210224084044 59 130 1.7 5.2 0.00 0.00 0.00 87 1014.2
20210224083945 59 180 1.7 5.2 0.00 0.00 0.00 87 1014.2
20210224083849 59 166 2.6 5.2 0.00 0.00 0.00 87 1014.2
20210224083744 59 155 2.6 5.2 0.00 0.00 0.00 87 1014.3
20210224083646 59 135 2.6 5.2 0.00 0.00 0.00 87 1014.3
20210224083544 59 133 2.6 5.2 0.00 0.00 0.00 87 1014.3
20210224083447 59 171 2.6 5.2 0.00 0.00 0.00 87 1014.3
20210224083346 59 147 3.5 5.2 0.00 0.00 0.00 87 1014.2
20210224083246 59 137 3.5 6.1 0.00 0.00 0.00 87 1014.3
20210224083147 59 127 1.7 6.1 0.00 0.00 0.00 87 1014.3
20210224083044 59 172 2.6 6.1 0.00 0.00 0.00 87 1014.3
20210224082945 59 175 2.6 6.1 0.00 0.00 0.00 87 1014.3
20210224082858 59 171 1.7 6.1 0.00 0.00 0.00 87 1014.3
20210224082847 59 159 1.7 6.1 0.00 0.00 0.00 87 1014.3
20210224082742 59 137 1.7 6.1 0.00 0.00 0.00 87 1014.3
20210224082634 59 113 2.6 6.1 0.00 0.00 0.00 87 1014.4
20210224082451 59 189 3.5 6.1 0.00 0.00 0.00 87 1014.3
20210224082348 59 125 2.6 6.1 0.00 0.00 0.00 87 1014.3
20210224082245 59 217 1.7 4.3 0.00 0.00 0.00 87 1014.4
20210224082143 59 157 1.7 7.8 0.00 0.00 0.00 87 1014.4
20210224082043 59 197 2.6 7.8 0.00 0.00 0.00 87 1014.4
20210224081945 59 180 2.6 7.8 0.00 0.00 0.00 87 1014.4
20210224081845 59 149 2.6 7.8 0.00 0.00 0.00 86 1014.4
20210224081746 59 148 2.6 7.8 0.00 0.00 0.00 86 1014.4
20210224081644 59 130 1.7 7.8 0.00 0.00 0.00 86 1014.4
20210224081546 59 286 1.7 7.8 0.00 0.00 0.00 86 1014.4
20210224081444 59 148 2.6 7.8 0.00 0.00 0.00 86 1014.5
20210224081343 59 121 3.5 7.8 0.00 0.00 0.00 86 1014.4
20210224081246 59 157 3.5 7.8 0.00 0.00 0.00 86 1014.5
20210224081143 59 127 2.6 6.1 0.00 0.00 0.00 86 1014.5
20210224081043 59 176 1.7 6.1 0.00 0.00 0.00 86 1014.5
20210224080943 59 116 0.9 6.1 0.00 0.00 0.00 86 1014.5
20210224080845 59 164 2.6 6.1 0.00 0.00 0.00 86 1014.5
20210224080743 59 193 3.5 6.1 0.00 0.00 0.00 86 1014.5
20210224080644 59 114 2.6 6.1 0.00 0.00 0.00 86 1014.5
20210224080543 59 135 2.6 6.1 0.00 0.00 0.00 86 1014.6
20210224080444 59 248 3.5 7.8 0.00 0.00 0.00 86 1014.7
20210224080344 59 148 2.6 7.8 0.00 0.00 0.00 86 1014.7
20210224080244 59 159 2.6 7.8 0.00 0.00 0.00 86 1014.6
20210224080143 59 155 2.6 7.8 0.00 0.00 0.00 86 1014.7
20210224080044 59 83 2.6 7.8 0.00 0.00 0.00 86 1014.6
20210224075942 59 151 2.6 7.8 0.00 0.00 0.00 86 1014.7
20210224075845 59 145 2.6 7.8 0.00 0.00 0.00 86 1014.6
20210224075744 59 155 2.6 7.8 0.00 0.00 0.00 85 1014.6
20210224075646 59 161 3.5 7.8 0.00 0.00 0.00 86 1014.7
20210224075546 59 151 3.5 7.8 0.00 0.00 0.00 85 1014.8
20210224075446 59 148 2.6 5.2 0.00 0.00 0.00 85 1014.7
20210224075428 59 131 1.7 4.3 0.00 0.00 0.00 85 1014.7
20210224075420 59 171 2.6 6.1 0.00 0.00 0.00 85 1014.7
20210224075405 59 149 2.6 6.1 0.00 0.00 0.00 85 1014.7
20210224075326 59 199 2.6 6.1 0.00 0.00 0.00 85 1014.7
20210224075112 59 196 1.7 6.1 0.00 0.00 0.00 85 1014.7
20210224074928 59 202 1.7 6.1 0.00 0.00 0.00 85 1014.7
20210224074757 59 158 1.7 6.1 0.00 0.00 0.00 85 1014.7
20210224074646 59 62 1.7 6.1 0.00 0.00 0.00 85 1014.7
20210224074547 59 166 2.6 8.7 0.00 0.00 0.00 85 1014.7
20210224074443 59 175 3.5 8.7 0.00 0.00 0.00 85 1014.7
20210224074351 59 172 3.5 8.7 0.00 0.00 0.00 85 1014.7
20210224074243 59 166 3.5 8.7 0.00 0.00 0.00 85 1014.7
20210224074143 59 228 2.6 8.7 0.00 0.00 0.00 85 1014.8
20210224074047 59 233 2.6 8.7 0.00 0.00 0.00 85 1014.7
20210224073944 59 147 2.6 8.7 0.00 0.00 0.00 85 1014.8
20210224073842 59 183 2.6 8.7 0.00 0.00 0.00 85 1014.8
20210224073745 59 148 3.5 8.7 0.00 0.00 0.00 85 1014.8
20210224073643 59 169 3.5 8.7 0.00 0.00 0.00 85 1014.8
20210224073543 59 214 2.6 7.8 0.00 0.00 0.00 85 1014.8
20210224073443 59 94 3.5 7.8 0.00 0.00 0.00 84 1014.8
20210224073346 59 159 3.5 7.8 0.00 0.00 0.00 84 1014.7
20210224073242 59 221 3.5 7.8 0.00 0.00 0.00 84 1014.8
20210224073148 59 259 3.5 7.8 0.00 0.00 0.00 84 1014.8
20210224073044 59 159 3.5 7.8 0.00 0.00 0.00 84 1014.9
20210224072943 59 190 2.6 6.1 0.00 0.00 0.00 84 1014.8
20210224072858 59 120 2.6 6.1 0.00 0.00 0.00 84 1014.9
20210224072846 59 176 2.6 6.1 0.00 0.00 0.00 84 1014.9
20210224072753 59 175 2.6 6.1 0.00 0.00 0.00 84 1014.8
20210224072628 60 185 3.5 6.1 0.00 0.00 0.00 84 1014.8
20210224072458 59 165 3.5 6.1 0.00 0.00 0.00 84 1014.9
20210224072402 59 145 3.5 6.1 0.00 0.00 0.00 85 1014.8
20210224072245 59 154 2.6 6.1 0.00 0.00 0.00 84 1014.9
20210224072143 59 173 2.6 5.2 0.00 0.00 0.00 84 1014.8
20210224072051 59 113 3.5 5.2 0.00 0.00 0.00 84 1014.8
20210224071944 59 117 4.3 5.2 0.00 0.00 0.00 84 1014.8
20210224071844 59 145 3.5 5.2 0.00 0.00 0.00 84 1014.8
20210224071742 59 179 3.5 4.3 0.00 0.00 0.00 84 1014.8
20210224071643 60 173 1.7 6.1 0.00 0.00 0.00 84 1014.8
20210224071542 60 173 1.7 6.1 0.00 0.00 0.00 84 1014.8
20210224071442 60 173 1.7 6.1 0.00 0.00 0.00 84 1014.8
20210224071343 60 173 1.7 6.1 0.00 0.00 0.00 84 1014.8
20210224071239 60 173 1.7 6.1 0.00 0.00 0.00 84 1014.8
20210224071142 59 140 1.7 6.1 0.00 0.00 0.00 84 1014.8
20210224071044 60 189 1.7 6.1 0.00 0.00 0.00 84 1014.8
20210224070939 59 166 1.7 6.1 0.00 0.00 0.00 84 1014.8
20210224070840 59 212 3.5 6.1 0.00 0.00 0.00 84 1014.8
20210224070739 59 197 3.5 6.1 0.00 0.00 0.00 84 1014.8
20210224070640 59 71 2.6 6.1 0.00 0.00 0.00 84 1014.8
20210224070539 59 166 1.7 6.1 0.00 0.00 0.00 84 1014.8
20210224070438 59 159 1.7 6.1 0.00 0.00 0.00 84 1014.8
20210224070339 60 155 2.6 6.1 0.00 0.00 0.00 84 1014.9
20210224070243 60 97 3.5 6.1 0.00 0.00 0.00 84 1014.8
20210224070148 59 220 4.3 6.1 0.00 0.00 0.00 84 1014.9
20210224070045 59 152 3.5 5.2 0.00 0.00 0.00 84 1014.9
20210224065945 59 199 3.5 6.1 0.00 0.00 0.00 84 1014.9
20210224065840 59 158 2.6 6.1 0.00 0.00 0.00 84 1014.9
20210224065741 59 144 2.6 6.1 0.00 0.00 0.00 84 1014.9
20210224065639 59 164 3.5 6.1 0.00 0.00 0.00 84 1014.9
20210224065546 59 133 3.5 6.1 0.00 0.00 0.00 84 1014.9
20210224065516 60 124 3.5 6.1 0.00 0.00 0.00 84 1014.9
20210224065433 59 188 3.5 7.8 0.00 0.00 0.00 84 1015.0
20210224065419 59 189 2.6 7.8 0.00 0.00 0.00 84 1014.9
20210224065411 60 217 3.5 7.8 0.00 0.00 0.00 83 1014.9
20210224065345 60 118 3.5 7.8 0.00 0.00 0.00 83 1014.9
20210224065209 60 117 3.5 7.8 0.00 0.00 0.00 83 1014.9
20210224065038 60 173 3.5 7.8 0.00 0.00 0.00 83 1014.9
20210224064756 60 130 2.6 7.8 0.00 0.00 0.00 83 1014.9
20210224064640 60 147 2.6 7.8 0.00 0.00 0.00 83 1014.8
20210224064541 60 123 4.3 7.8 0.00 0.00 0.00 83 1014.8
20210224064438 60 185 3.5 7.8 0.00 0.00 0.00 83 1014.9
20210224064343 60 161 1.7 7.8 0.00 0.00 0.00 83 1014.9
20210224064239 60 147 2.6 7.8 0.00 0.00 0.00 83 1014.8
20210224064142 60 161 2.6 7.8 0.00 0.00 0.00 83 1014.9
20210224064043 60 102 2.6 6.1 0.00 0.00 0.00 83 1014.9
20210224063938 60 197 3.5 6.1 0.00 0.00 0.00 83 1014.9
20210224063833 60 140 3.5 6.1 0.00 0.00 0.00 83 1014.9
20210224063733 60 109 3.5 6.1 0.00 0.00 0.00 83 1014.9
20210224063631 60 180 3.5 7.8 0.00 0.00 0.00 83 1014.9
20210224063535 60 155 3.5 7.8 0.00 0.00 0.00 83 1014.9
20210224063426 60 228 2.6 7.8 0.00 0.00 0.00 83 1014.9
20210224063329 60 141 2.6 7.8 0.00 0.00 0.00 83 1014.9
20210224063226 60 224 3.5 7.8 0.00 0.00 0.00 83 1014.9
20210224063122 60 140 3.5 7.8 0.00 0.00 0.00 83 1014.9
20210224063029 60 149 3.5 7.8 0.00 0.00 0.00 83 1015.1
20210224062918 60 145 3.5 7.8 0.00 0.00 0.00 83 1015.0
20210224062855 60 85 3.5 7.8 0.00 0.00 0.00 83 1015.0
20210224062808 60 117 3.5 6.1 0.00 0.00 0.00 83 1015.0
20210224062717 60 145 3.5 6.1 0.00 0.00 0.00 83 1015.1
20210224062611 60 161 3.5 6.1 0.00 0.00 0.00 83 1015.1
20210224062454 59 176 2.6 6.1 0.00 0.00 0.00 83 1015.1
20210224062311 60 131 2.6 6.1 0.00 0.00 0.00 83 1015.0
20210224062212 60 107 2.6 6.1 0.00 0.00 0.00 83 1015.2
20210224062111 59 137 2.6 6.1 0.00 0.00 0.00 83 1015.2
20210224062025 59 180 3.5 6.1 0.00 0.00 0.00 83 1015.2
20210224061920 59 209 2.6 6.1 0.00 0.00 0.00 83 1015.1
20210224061809 59 147 2.6 6.1 0.00 0.00 0.00 83 1015.1
20210224061711 59 147 3.5 6.1 0.00 0.00 0.00 83 1015.1
20210224061611 59 165 2.6 6.1 0.00 0.00 0.00 83 1015.1
20210224061525 59 131 2.6 6.1 0.00 0.00 0.00 83 1015.1
20210224061409 59 176 2.6 6.1 0.00 0.00 0.00 83 1015.1
20210224061311 59 147 2.6 6.1 0.00 0.00 0.00 83 1015.1
20210224061210 59 192 2.6 6.1 0.00 0.00 0.00 83 1015.2
20210224061115 59 94 2.6 7.8 0.00 0.00 0.00 83 1015.1
20210224061025 60 144 2.6 7.8 0.00 0.00 0.00 82 1015.1
20210224060913 60 207 2.6 7.8 0.00 0.00 0.00 82 1015.1
20210224060810 60 59 3.5 7.8 0.00 0.00 0.00 82 1015.2
20210224060713 60 117 3.5 7.8 0.00 0.00 0.00 82 1015.1
20210224060611 60 192 3.5 7.8 0.00 0.00 0.00 83 1015.2
20210224060521 60 189 3.5 7.8 0.00 0.00 0.00 83 1015.2
20210224060410 60 200 2.6 7.8 0.00 0.00 0.00 83 1015.1
20210224060311 60 78 4.3 7.8 0.00 0.00 0.00 83 1015.2
20210224060209 60 144 4.3 8.7 0.00 0.00 0.00 83 1015.2
20210224060110 59 185 2.6 8.7 0.00 0.00 0.00 83 1015.2
20210224060020 59 185 3.5 8.7 0.00 0.00 0.00 83 1015.1
20210224055911 59 183 3.5 8.7 0.00 0.00 0.00 83 1015.1
20210224055810 59 161 2.6 8.7 0.00 0.00 0.00 83 1015.1
20210224055718 59 147 3.5 8.7 0.00 0.00 0.00 83 1015.2
20210224055612 59 162 3.5 8.7 0.00 0.00 0.00 83 1015.1
20210224055517 59 169 3.5 8.7 0.00 0.00 0.00 83 1015.1
20210224055410 59 154 3.5 8.7 0.00 0.00 0.00 83 1015.2
20210224055341 59 226 3.5 8.7 0.00 0.00 0.00 83 1015.1
20210224055332 59 200 3.5 7.8 0.00 0.00 0.00 83 1015.1
20210224055257 59 155 2.6 7.8 0.00 0.00 0.00 83 1015.2
20210224055126 59 142 2.6 5.2 0.00 0.00 0.00 83 1015.1
20210224055021 59 138 3.5 5.2 0.00 0.00 0.00 83 1015.2
20210224054828 59 134 3.5 6.1 0.00 0.00 0.00 83 1015.2
20210224054713 59 148 2.6 6.1 0.00 0.00 0.00 83 1015.1
20210224054626 59 142 1.7 7.8 0.00 0.00 0.00 83 1015.1
20210224054517 59 128 2.6 7.8 0.00 0.00 0.00 83 1015.2
20210224054410 59 186 2.6 7.8 0.00 0.00 0.00 83 1015.2
20210224054311 59 183 3.5 7.8 0.00 0.00 0.00 83 1015.3
20210224054210 59 178 2.6 7.8 0.00 0.00 0.00 83 1015.2
20210224054111 59 221 2.6 7.8 0.00 0.00 0.00 83 1015.3
20210224054022 59 185 3.5 7.8 0.00 0.00 0.00 83 1015.3
20210224053911 59 183 1.7 7.8 0.00 0.00 0.00 82 1015.3
20210224053813 59 164 2.6 7.8 0.00 0.00 0.00 82 1015.3
20210224053710 59 231 3.5 7.8 0.00 0.00 0.00 82 1015.3
20210224053611 59 178 2.6 6.1 0.00 0.00 0.00 82 1015.3
20210224053521 59 137 2.6 6.1 0.00 0.00 0.00 82 1015.3
20210224053409 59 141 3.5 6.1 0.00 0.00 0.00 82 1015.4
20210224053312 59 135 3.5 6.1 0.00 0.00 0.00 82 1015.4
20210224053211 59 179 3.5 6.1 0.00 0.00 0.00 82 1015.4
20210224053110 59 157 2.6 6.1 0.00 0.00 0.00 82 1015.4
20210224053023 59 169 2.6 5.2 0.00 0.00 0.00 82 1015.4
20210224052936 59 107 3.5 5.2 0.00 0.00 0.00 82 1015.4
20210224052927 59 124 2.6 5.2 0.00 0.00 0.00 82 1015.4
20210224052911 59 197 1.7 8.7 0.00 0.00 0.00 82 1015.5
20210224052800 59 123 1.7 8.7 0.00 0.00 0.00 82 1015.5
20210224052615 59 237 2.6 8.7 0.00 0.00 0.00 82 1015.5
20210224052441 59 173 3.5 8.7 0.00 0.00 0.00 82 1015.5
20210224052306 60 190 2.6 8.7 0.00 0.00 0.00 82 1015.5
20210224052201 60 192 1.7 8.7 0.00 0.00 0.00 82 1015.6
20210224052059 60 99 1.7 8.7 0.00 0.00 0.00 82 1015.5
20210224051957 60 140 2.6 8.7 0.00 0.00 0.00 82 1015.5
20210224051856 60 144 4.3 8.7 0.00 0.00 0.00 82 1015.5
20210224051755 60 149 4.3 8.7 0.00 0.00 0.00 82 1015.5
20210224051654 60 180 2.6 7.8 0.00 0.00 0.00 81 1015.5
20210224051554 60 178 2.6 7.8 0.00 0.00 0.00 81 1015.5
20210224051451 60 175 3.5 7.8 0.00 0.00 0.00 81 1015.6
20210224051349 60 195 3.5 7.8 0.00 0.00 0.00 81 1015.5
20210224051247 60 173 2.6 6.1 0.00 0.00 0.00 81 1015.6
20210224051146 60 128 2.6 7.8 0.00 0.00 0.00 81 1015.5
20210224051044 60 203 3.5 7.8 0.00 0.00 0.00 81 1015.6
20210224050943 60 200 3.5 7.8 0.00 0.00 0.00 81 1015.6
20210224050840 60 190 3.5 7.8 0.00 0.00 0.00 81 1015.6
20210224050740 60 162 2.6 7.8 0.00 0.00 0.00 81 1015.6
20210224050642 60 172 3.5 7.8 0.00 0.00 0.00 81 1015.6
20210224050541 60 157 3.5 7.8 0.00 0.00 0.00 81 1015.6
20210224050438 60 83 2.6 7.8 0.00 0.00 0.00 81 1015.6
20210224050340 60 185 3.5 7.8 0.00 0.00 0.00 81 1015.6
20210224050240 60 169 3.5 8.7 0.00 0.00 0.00 81 1015.7
20210224050149 60 149 2.6 8.7 0.00 0.00 0.00 81 1015.7
20210224050046 60 199 3.5 8.7 0.00 0.00 0.00 81 1015.6
20210224045939 60 203 2.6 8.7 0.00 0.00 0.00 81 1015.7
20210224045832 60 117 3.5 8.7 0.00 0.00 0.00 81 1015.6
20210224045730 60 193 3.5 13.0 0.00 0.00 0.00 80 1015.7
20210224045630 60 128 3.5 13.0 0.00 0.00 0.00 80 1015.6
20210224045549 60 171 4.3 13.0 0.00 0.00 0.00 80 1015.7
20210224045425 60 220 4.3 13.0 0.00 0.00 0.00 80 1015.7
20210224045323 60 175 3.5 13.0 0.00 0.00 0.00 80 1015.7
20210224045235 60 158 3.5 13.0 0.00 0.00 0.00 80 1015.7
20210224045157 60 192 2.6 13.0 0.00 0.00 0.00 80 1015.7
20210224045105 60 137 3.5 13.0 0.00 0.00 0.00 80 1015.8
20210224044923 60 169 6.1 13.0 0.00 0.00 0.00 80 1015.7
20210224044829 60 149 7.0 13.0 0.00 0.00 0.00 80 1015.7
20210224044716 60 133 5.2 10.4 0.00 0.00 0.00 80 1015.7
20210224044612 60 200 4.3 10.4 0.00 0.00 0.00 80 1015.7
20210224044522 60 186 2.6 10.4 0.00 0.00 0.00 80 1015.7
20210224044410 60 214 2.6 10.4 0.00 0.00 0.00 80 1015.8
20210224044312 60 104 3.5 10.4 0.00 0.00 0.00 80 1015.7
20210224044210 60 165 3.5 10.4 0.00 0.00 0.00 80 1015.7
20210224044112 60 162 5.2 10.4 0.00 0.00 0.00 80 1015.7
20210224044021 60 23 5.2 10.4 0.00 0.00 0.00 80 1015.7
20210224043909 60 166 5.2 10.4 0.00 0.00 0.00 80 1015.7
20210224043811 60 195 4.3 8.7 0.00 0.00 0.00 80 1015.7
20210224043717 60 276 4.3 9.6 0.00 0.00 0.00 80 1015.7
20210224043619 60 183 3.5 9.6 0.00 0.00 0.00 80 1015.7
20210224043526 60 159 3.5 9.6 0.00 0.00 0.00 80 1015.7
20210224043410 60 148 4.3 11.3 0.00 0.00 0.00 80 1015.7
20210224043313 60 192 4.3 11.3 0.00 0.00 0.00 80 1015.8
20210224043211 60 192 4.3 11.3 0.00 0.00 0.00 80 1015.7
20210224043111 60 238 3.5 11.3 0.00 0.00 0.00 80 1015.8
20210224043022 60 217 3.5 11.3 0.00 0.00 0.00 80 1015.8
20210224042916 61 151 3.5 12.2 0.00 0.00 0.00 80 1015.7
20210224042810 60 137 5.2 12.2 0.00 0.00 0.00 80 1015.7
20210224042723 61 94 5.2 12.2 0.00 0.00 0.00 80 1015.8
20210224042644 61 258 5.2 12.2 0.00 0.00 0.00 80 1015.7
20210224042520 60 214 5.2 12.2 0.00 0.00 0.00 80 1015.7
20210224042416 60 100 4.3 12.2 0.00 0.00 0.00 80 1015.7
20210224042318 61 171 4.3 12.2 0.00 0.00 0.00 80 1015.8
20210224042213 61 102 5.2 12.2 0.00 0.00 0.00 80 1015.7
20210224042110 61 134 7.0 12.2 0.00 0.00 0.00 80 1015.7
20210224042025 60 196 5.2 12.2 0.00 0.00 0.00 80 1015.7
20210224041911 60 192 4.3 10.4 0.00 0.00 0.00 80 1015.7
20210224041805 60 166 5.2 10.4 0.00 0.00 0.00 80 1015.7
20210224041705 60 0 4.3 10.4 0.00 0.00 0.00 80 1015.8
20210224041606 60 28 4.3 9.6 0.00 0.00 0.00 80 1015.7
20210224041517 60 185 4.3 9.6 0.00 0.00 0.00 80 1015.7
20210224041359 60 204 4.3 9.6 0.00 0.00 0.00 80 1015.6
20210224041303 60 228 5.2 9.6 0.00 0.00 0.00 80 1015.7
20210224041139 60 102 5.2 9.6 0.00 0.00 0.00 80 1015.7
20210224041040 61 214 4.3 11.3 0.00 0.00 0.00 79 1015.7
20210224040951 61 125 3.5 11.3 0.00 0.00 0.00 79 1015.7
20210224040838 61 145 4.3 12.2 0.00 0.00 0.00 79 1015.7
20210224040745 61 157 5.2 12.2 0.00 0.00 0.00 79 1015.7
20210224040640 61 144 4.3 12.2 0.00 0.00 0.00 79 1015.7
20210224040541 61 149 3.5 12.2 0.00 0.00 0.00 79 1015.7
20210224040443 61 190 3.5 12.2 0.00 0.00 0.00 79 1015.7
20210224040339 61 209 4.3 12.2 0.00 0.00 0.00 79 1015.8
20210224040242 61 82 5.2 12.2 0.00 0.00 0.00 79 1015.8
20210224040138 61 162 6.1 12.2 0.00 0.00 0.00 80 1015.7
20210224040041 61 186 5.2 12.2 0.00 0.00 0.00 80 1015.8
20210224035939 61 142 4.3 12.2 0.00 0.00 0.00 80 1015.7
20210224035842 61 200 3.5 9.6 0.00 0.00 0.00 79 1015.8
20210224035740 61 151 3.5 9.6 0.00 0.00 0.00 80 1015.8
20210224035642 61 162 2.6 9.6 0.00 0.00 0.00 80 1015.9
20210224035542 61 182 2.6 9.6 0.00 0.00 0.00 79 1015.9
20210224035441 61 148 4.3 9.6 0.00 0.00 0.00 79 1015.9
20210224035339 61 192 5.2 10.4 0.00 0.00 0.00 79 1015.9
20210224035244 61 124 5.2 10.4 0.00 0.00 0.00 80 1015.9
20210224035230 61 135 4.3 10.4 0.00 0.00 0.00 80 1015.9
20210224035136 61 241 3.5 10.4 0.00 0.00 0.00 80 1016.0
20210224034947 61 109 4.3 10.4 0.00 0.00 0.00 80 1015.9
20210224034847 61 266 4.3 10.4 0.00 0.00 0.00 80 1015.9
20210224034738 61 127 3.5 10.4 0.00 0.00 0.00 80 1015.9
20210224034639 61 185 3.5 10.4 0.00 0.00 0.00 80 1015.9
20210224034539 61 75 4.3 10.4 0.00 0.00 0.00 80 1015.9
20210224034439 60 196 4.3 10.4 0.00 0.00 0.00 80 1015.9
20210224034337 60 90 3.5 8.7 0.00 0.00 0.00 80 1015.9
20210224034237 60 173 3.5 8.7 0.00 0.00 0.00 80 1016.0
20210224034139 60 157 2.6 7.8 0.00 0.00 0.00 80 1015.9
20210224034040 61 128 2.6 7.8 0.00 0.00 0.00 80 1015.9
20210224033938 61 114 2.6 7.8 0.00 0.00 0.00 80 1015.9
20210224033839 61 192 2.6 7.8 0.00 0.00 0.00 80 1015.8
20210224033744 61 89 3.5 7.8 0.00 0.00 0.00 80 1015.9
20210224033637 61 168 4.3 7.8 0.00 0.00 0.00 80 1015.8
20210224033542 61 179 3.5 7.8 0.00 0.00 0.00 80 1015.9
20210224033439 61 127 3.5 7.8 0.00 0.00 0.00 80 1015.9
20210224033340 61 148 3.5 8.7 0.00 0.00 0.00 80 1015.9
20210224033239 61 190 3.5 8.7 0.00 0.00 0.00 80 1015.9
20210224033137 61 157 1.7 9.6 0.00 0.00 0.00 80 1015.9
20210224033040 61 299 1.7 9.6 0.00 0.00 0.00 79 1015.9
20210224032937 61 116 2.6 9.6 0.00 0.00 0.00 79 1015.9
20210224032853 61 16 2.6 9.6 0.00 0.00 0.00 79 1015.9
20210224032813 61 141 3.5 9.6 0.00 0.00 0.00 79 1015.9
20210224032738 61 228 3.5 9.6 0.00 0.00 0.00 79 1015.9
20210224032702 61 206 4.3 9.6 0.00 0.00 0.00 79 1016.0
20210224032450 61 161 4.3 9.6 0.00 0.00 0.00 79 1016.0
20210224032338 61 209 4.3 9.6 0.00 0.00 0.00 79 1016.0
20210224032238 61 127 3.5 7.8 0.00 0.00 0.00 79 1016.0
20210224032137 61 127 2.6 8.7 0.00 0.00 0.00 79 1015.9
20210224032037 61 171 3.5 8.7 0.00 0.00 0.00 79 1015.9
20210224031938 61 106 3.5 8.7 0.00 0.00 0.00 79 1015.9
20210224031840 61 106 3.5 9.6 0.00 0.00 0.00 79 1015.9
20210224031736 61 216 3.5 9.6 0.00 0.00 0.00 79 1016.0
20210224031637 61 172 4.3 9.6 0.00 0.00 0.00 79 1015.8
20210224031541 61 166 3.5 9.6 0.00 0.00 0.00 79 1015.9
20210224031436 61 41 4.3 9.6 0.00 0.00 0.00 79 1015.9
20210224031340 61 155 4.3 9.6 0.00 0.00 0.00 78 1015.9
20210224031240 61 128 2.6 9.6 0.00 0.00 0.00 78 1015.9
20210224031137 61 131 2.6 9.6 0.00 0.00 0.00 78 1015.9
20210224031042 61 147 3.5 9.6 0.00 0.00 0.00 78 1015.9
20210224030938 61 197 3.5 9.6 0.00 0.00 0.00 78 1016.0
20210224030836 61 118 3.5 8.7 0.00 0.00 0.00 78 1015.9
20210224030738 61 193 3.5 8.7 0.00 0.00 0.00 78 1015.9
20210224030639 61 192 3.5 9.6 0.00 0.00 0.00 78 1015.9
20210224030535 62 149 2.6 9.6 0.00 0.00 0.00 78 1015.9
20210224030434 62 171 4.3 9.6 0.00 0.00 0.00 78 1015.9
20210224030334 62 221 5.2 9.6 0.00 0.00 0.00 78 1015.9
20210224030234 62 141 4.3 9.6 0.00 0.00 0.00 78 1015.9
20210224030130 61 157 3.5 9.6 0.00 0.00 0.00 78 1015.8
20210224030024 62 155 4.3 9.6 0.00 0.00 0.00 78 1015.9
20210224025913 61 159 3.5 9.6 0.00 0.00 0.00 78 1015.8
20210224025810 62 190 3.5 9.6 0.00 0.00 0.00 78 1015.9
20210224025711 62 111 3.5 9.6 0.00 0.00 0.00 77 1015.9
20210224025611 62 130 2.6 8.7 0.00 0.00 0.00 77 1015.9
20210224025524 62 141 2.6 8.7 0.00 0.00 0.00 77 1015.8
20210224025411 62 99 2.6 8.7 0.00 0.00 0.00 77 1015.8
20210224025335 62 28 2.6 8.7 0.00 0.00 0.00 77 1015.8
20210224025325 62 128 4.3 8.7 0.00 0.00 0.00 77 1015.8
20210224025313 62 230 4.3 9.6 0.00 0.00 0.00 77 1015.9
20210224025153 62 151 4.3 10.4 0.00 0.00 0.00 77 1015.8
20210224025046 62 182 3.5 10.4 0.00 0.00 0.00 77 1015.7
20210224024846 62 128 3.5 10.4 0.00 0.00 0.00 76 1015.7
20210224024710 62 178 3.5 10.4 0.00 0.00 0.00 76 1015.7
20210224024613 62 123 4.3 10.4 0.00 0.00 0.00 76 1015.8
20210224024521 62 151 4.3 10.4 0.00 0.00 0.00 76 1015.8
20210224024410 62 144 3.5 10.4 0.00 0.00 0.00 76 1015.8
20210224024309 62 158 4.3 10.4 0.00 0.00 0.00 76 1015.8
20210224024211 62 166 5.2 10.4 0.00 0.00 0.00 76 1015.8
20210224024110 62 166 4.3 10.4 0.00 0.00 0.00 76 1015.8
20210224024024 62 140 2.6 7.8 0.00 0.00 0.00 76 1015.8
20210224023910 62 185 2.6 7.8 0.00 0.00 0.00 76 1015.7
20210224023812 62 130 3.5 7.8 0.00 0.00 0.00 76 1015.7
20210224023709 62 171 3.5 8.7 0.00 0.00 0.00 76 1015.7
20210224023609 62 169 4.3 9.6 0.00 0.00 0.00 76 1015.7
20210224023520 62 157 3.5 9.6 0.00 0.00 0.00 75 1015.6
20210224023410 62 172 3.5 12.2 0.00 0.00 0.00 75 1015.7
20210224023310 62 135 2.6 12.2 0.00 0.00 0.00 75 1015.6
20210224023210 62 89 3.5 12.2 0.00 0.00 0.00 75 1015.6
20210224023111 63 162 4.3 12.2 0.00 0.00 0.00 75 1015.6
20210224023024 63 135 3.5 12.2 0.00 0.00 0.00 75 1015.5
20210224022929 63 171 4.3 12.2 0.00 0.00 0.00 75 1015.6
20210224022917 63 142 5.2 12.2 0.00 0.00 0.00 75 1015.6
20210224022855 63 158 4.3 12.2 0.00 0.00 0.00 75 1015.6
20210224022755 63 197 5.2 12.2 0.00 0.00 0.00 75 1015.6
20210224022550 63 210 7.0 12.2 0.00 0.00 0.00 75 1015.6
20210224022443 63 142 5.2 10.4 0.00 0.00 0.00 75 1015.6
20210224022318 63 121 4.3 10.4 0.00 0.00 0.00 75 1015.6
20210224022209 63 109 4.3 10.4 0.00 0.00 0.00 75 1015.6
20210224022110 63 147 3.5 10.4 0.00 0.00 0.00 75 1015.5
20210224022033 63 175 5.2 10.4 0.00 0.00 0.00 75 1015.6
20210224021913 63 124 5.2 10.4 0.00 0.00 0.00 75 1015.5
20210224021811 63 178 4.3 10.4 0.00 0.00 0.00 75 1015.6
20210224021713 63 117 3.5 9.6 0.00 0.00 0.00 74 1015.5
20210224021612 63 83 4.3 9.6 0.00 0.00 0.00 75 1015.6
20210224021527 63 168 3.5 9.6 0.00 0.00 0.00 75 1015.5
20210224021409 63 133 4.3 8.7 0.00 0.00 0.00 75 1015.5
20210224021314 63 180 5.2 8.7 0.00 0.00 0.00 75 1015.5
20210224021210 63 164 4.3 9.6 0.00 0.00 0.00 74 1015.6
20210224021112 63 135 4.3 9.6 0.00 0.00 0.00 74 1015.5
20210224021024 63 179 3.5 9.6 0.00 0.00 0.00 74 1015.6
20210224020909 63 145 3.5 9.6 0.00 0.00 0.00 74 1015.6
20210224020813 63 71 3.5 9.6 0.00 0.00 0.00 74 1015.6
20210224020711 63 171 2.6 9.6 0.00 0.00 0.00 74 1015.5
20210224020612 63 135 3.5 9.6 0.00 0.00 0.00 74 1015.5
20210224020518 63 138 5.2 9.6 0.00 0.00 0.00 73 1015.5
20210224020412 63 111 5.2 9.6 0.00 0.00 0.00 73 1015.5
20210224020312 63 131 5.2 9.6 0.00 0.00 0.00 73 1015.4
20210224020209 63 196 3.5 7.8 0.00 0.00 0.00 73 1015.4
20210224020111 63 159 3.5 7.8 0.00 0.00 0.00 73 1015.4
20210224020024 63 78 3.5 7.8 0.00 0.00 0.00 73 1015.4
20210224015909 63 131 3.5 7.8 0.00 0.00 0.00 73 1015.4
20210224015810 63 135 2.6 7.8 0.00 0.00 0.00 73 1015.4
20210224015711 63 120 3.5 7.8 0.00 0.00 0.00 73 1015.4
20210224015610 63 165 3.5 7.8 0.00 0.00 0.00 73 1015.4
20210224015520 63 90 2.6 7.8 0.00 0.00 0.00 72 1015.5
20210224015413 63 175 3.5 7.8 0.00 0.00 0.00 72 1015.5
20210224015312 63 113 4.3 7.8 0.00 0.00 0.00 72 1015.4
20210224015211 63 141 2.6 7.8 0.00 0.00 0.00 72 1015.5
20210224015110 64 96 2.6 7.8 0.00 0.00 0.00 72 1015.4
20210224015022 64 89 3.5 7.8 0.00 0.00 0.00 72 1015.5
20210224014911 64 140 3.5 7.8 0.00 0.00 0.00 71 1015.5
20210224014809 64 209 3.5 6.1 0.00 0.00 0.00 71 1015.4
20210224014713 64 120 3.5 6.1 0.00 0.00 0.00 71 1015.4
20210224014611 64 144 3.5 6.1 0.00 0.00 0.00 71 1015.4
20210224014522 64 155 3.5 6.1 0.00 0.00 0.00 71 1015.5
20210224014409 64 89 4.3 6.1 0.00 0.00 0.00 70 1015.4
20210224014314 64 161 3.5 7.8 0.00 0.00 0.00 70 1015.4
20210224014210 64 161 3.5 13.0 0.00 0.00 0.00 70 1015.3
20210224014110 64 159 1.7 13.0 0.00 0.00 0.00 69 1015.3
20210224014017 64 159 1.7 13.0 0.00 0.00 0.00 69 1015.3
20210224013910 64 159 1.7 13.0 0.00 0.00 0.00 69 1015.3
20210224013811 64 159 1.7 13.0 0.00 0.00 0.00 69 1015.3
20210224013713 64 133 1.7 13.0 0.00 0.00 0.00 69 1015.3
20210224013612 64 157 2.6 13.0 0.00 0.00 0.00 69 1015.3
20210224013517 64 106 2.6 13.0 0.00 0.00 0.00 69 1015.2
20210224013414 65 133 4.3 13.0 0.00 0.00 0.00 69 1015.2
20210224013311 65 140 3.5 13.0 0.00 0.00 0.00 69 1015.2
20210224013210 65 157 2.6 8.7 0.00 0.00 0.00 68 1015.2
20210224013112 65 107 2.6 8.7 0.00 0.00 0.00 68 1015.2
20210224013027 65 113 1.7 8.7 0.00 0.00 0.00 68 1015.2
20210224012939 65 155 2.6 8.7 0.00 0.00 0.00 68 1015.2
20210224012929 65 166 3.5 8.7 0.00 0.00 0.00 68 1015.2
20210224012914 65 190 4.3 8.7 0.00 0.00 0.00 68 1015.1
20210224012754 65 152 5.2 8.7 0.00 0.00 0.00 68 1015.2
20210224012636 65 179 4.3 7.8 0.00 0.00 0.00 68 1015.1
20210224012440 65 104 3.5 7.8 0.00 0.00 0.00 67 1015.1
20210224012318 65 162 2.6 8.7 0.00 0.00 0.00 67 1015.1
20210224012212 65 93 3.5 8.7 0.00 0.00 0.00 67 1015.0
20210224012111 65 148 3.5 8.7 0.00 0.00 0.00 67 1015.0
20210224012021 65 102 3.5 10.4 0.00 0.00 0.00 66 1015.0
20210224011910 65 155 3.5 10.4 0.00 0.00 0.00 66 1015.0
20210224011815 65 165 2.6 10.4 0.00 0.00 0.00 66 1015.0
20210224011710 66 114 3.5 10.4 0.00 0.00 0.00 65 1015.0
20210224011615 66 148 2.6 10.4 0.00 0.00 0.00 65 1015.0
20210224011530 66 182 3.5 10.4 0.00 0.00 0.00 65 1015.0
20210224011409 66 176 4.3 10.4 0.00 0.00 0.00 65 1015.0
20210224011314 66 103 4.3 10.4 0.00 0.00 0.00 64 1015.0
20210224011210 66 135 5.2 10.4 0.00 0.00 0.00 64 1015.0
20210224011114 66 169 5.2 10.4 0.00 0.00 0.00 64 1015.0
20210224011025 66 106 3.5 8.7 0.00 0.00 0.00 64 1014.9
20210224010910 66 154 3.5 8.7 0.00 0.00 0.00 63 1014.9
20210224010809 66 89 4.3 8.7 0.00 0.00 0.00 63 1014.9
20210224010710 66 118 4.3 8.7 0.00 0.00 0.00 63 1014.9
20210224010613 66 103 4.3 8.7 0.00 0.00 0.00 63 1014.9
20210224010522 66 130 3.5 9.6 0.00 0.00 0.00 63 1014.9
20210224010409 66 109 3.5 9.6 0.00 0.00 0.00 63 1014.9
20210224010317 67 135 3.5 9.6 0.00 0.00 0.00 62 1014.9
20210224010211 67 220 3.5 9.6 0.00 0.00 0.00 62 1014.9
20210224010110 67 165 3.5 9.6 0.00 0.00 0.00 62 1014.9
20210224010035 67 148 2.6 9.6 0.00 0.00 0.00 62 1014.9
20210224005911 67 252 3.5 9.6 0.00 0.00 0.00 61 1014.9
20210224005811 67 106 3.5 9.6 0.00 0.00 0.00 61 1015.0
20210224005712 67 128 3.5 9.6 0.00 0.00 0.00 61 1014.9
20210224005611 67 149 3.5 9.6 0.00 0.00 0.00 61 1014.8
20210224005517 67 110 4.3 9.6 0.00 0.00 0.00 60 1014.9
20210224005411 67 71 4.3 9.6 0.00 0.00 0.00 60 1014.8
20210224005349 67 154 3.5 9.6 0.00 0.00 0.00 60 1014.8
20210224005330 67 176 3.5 10.4 0.00 0.00 0.00 60 1014.9
20210224005311 67 203 3.5 10.4 0.00 0.00 0.00 60 1014.9
20210224005123 67 148 3.5 10.4 0.00 0.00 0.00 60 1014.8
20210224004954 67 142 3.5 10.4 0.00 0.00 0.00 59 1014.8
20210224004847 68 24 4.3 10.4 0.00 0.00 0.00 59 1014.8
20210224004710 68 238 3.5 10.4 0.00 0.00 0.00 59 1014.8
20210224004610 68 175 2.6 10.4 0.00 0.00 0.00 59 1014.8
20210224004523 68 73 2.6 10.4 0.00 0.00 0.00 59 1014.8
20210224004410 68 125 5.2 10.4 0.00 0.00 0.00 58 1014.8
20210224004309 68 138 5.2 10.4 0.00 0.00 0.00 58 1014.8
20210224004216 68 169 3.5 10.4 0.00 0.00 0.00 58 1014.8
20210224004117 68 103 4.3 10.4 0.00 0.00 0.00 57 1014.8
20210224004026 68 111 5.2 10.4 0.00 0.00 0.00 57 1014.8
20210224003913 68 142 5.2 10.4 0.00 0.00 0.00 57 1014.8
20210224003811 68 102 5.2 10.4 0.00 0.00 0.00 57 1014.8
20210224003711 69 89 3.5 10.4 0.00 0.00 0.00 56 1014.8
20210224003611 69 162 4.3 10.4 0.00 0.00 0.00 56 1014.8
20210224003526 69 162 4.3 10.4 0.00 0.00 0.00 56 1014.8
20210224003411 69 113 4.3 10.4 0.00 0.00 0.00 56 1014.8
20210224003311 69 224 4.3 10.4 0.00 0.00 0.00 55 1014.8
20210224003219 69 185 3.5 10.4 0.00 0.00 0.00 55 1014.9
20210224003109 69 164 3.5 10.4 0.00 0.00 0.00 54 1014.9
20210224003021 69 168 3.5 10.4 0.00 0.00 0.00 54 1014.8
20210224002925 69 130 3.5 10.4 0.00 0.00 0.00 54 1014.7
20210224002851 69 147 3.5 10.4 0.00 0.00 0.00 53 1014.7
20210224002753 70 151 3.5 10.4 0.00 0.00 0.00 53 1014.7
20210224002733 70 114 5.2 10.4 0.00 0.00 0.00 52 1014.8
20210224002608 70 157 5.2 10.4 0.00 0.00 0.00 52 1014.7
20210224002447 70 175 4.3 9.6 0.00 0.00 0.00 52 1014.7
20210224002310 70 220 5.2 9.6 0.00 0.00 0.00 51 1014.7
20210224002209 70 138 5.2 9.6 0.00 0.00 0.00 51 1014.7
20210224002112 70 171 4.3 9.6 0.00 0.00 0.00 51 1014.8
20210224002022 70 186 3.5 10.4 0.00 0.00 0.00 50 1014.8
20210224001916 70 154 3.5 10.4 0.00 0.00 0.00 50 1014.8
20210224001813 71 138 3.5 10.4 0.00 0.00 0.00 49 1014.8
20210224001711 71 137 4.3 11.3 0.00 0.00 0.00 49 1014.7
20210224001618 71 178 4.3 11.3 0.00 0.00 0.00 48 1014.8
20210224001538 71 189 4.3 11.3 0.00 0.00 0.00 48 1014.7
20210224001410 71 179 4.3 13.0 0.00 0.00 0.00 47 1014.7
20210224001315 71 152 4.3 13.0 0.00 0.00 0.00 47 1014.7
20210224001209 71 186 4.3 13.0 0.00 0.00 0.00 47 1014.7
20210224001110 71 137 5.2 13.0 0.00 0.00 0.00 47 1014.7
20210224001025 71 159 5.2 13.0 0.00 0.00 0.00 47 1014.7
20210224000909 71 175 5.2 13.0 0.00 0.00 0.00 47 1014.7
20210224000810 71 190 6.1 13.0 0.00 0.00 0.00 47 1014.7
20210224000713 71 220 5.2 13.0 0.00 0.00 0.00 48 1014.7
20210224000610 71 100 5.2 13.0 0.00 0.00 0.00 47 1014.7
20210224000525 71 107 5.2 13.0 0.00 0.00 0.00 47 1014.6
20210224000413 71 116 4.3 11.3 0.00 0.00 0.00 47 1014.7
20210224000314 72 196 3.5 11.3 0.00 0.00 0.00 47 1014.8
20210224000210 72 272 6.1 11.3 0.00 0.00 0.00 47 1014.7
20210224000113 72 155 5.2 13.0 0.00 0.00 0.00 46 1014.7
20210224000025 72 172 3.5 13.0 0.00 0.00 0.00 46 1014.7
20210223235909 72 210 4.3 13.0 0.00 0.00 0.00 46 1014.7
20210223235810 72 155 3.5 13.0 0.00 0.00 0.00 46 1014.7
20210223235709 72 125 3.5 13.0 0.00 0.00 0.00 46 1014.7
20210223235609 72 237 3.5 13.0 0.00 0.00 0.00 45 1014.7
20210223235520 72 165 3.5 13.0 0.00 0.00 0.00 45 1014.7
20210223235415 72 212 4.3 13.0 0.00 0.00 0.00 44 1014.7
20210223235335 72 118 6.1 13.0 0.00 0.00 0.00 44 1014.7
20210223235210 73 173 5.2 13.0 0.00 0.00 0.00 44 1014.6
20210223235112 73 128 5.2 13.0 0.00 0.00 0.00 43 1014.6
20210223235023 73 116 7.0 13.0 0.00 0.00 0.00 43 1014.6
20210223234912 73 207 7.8 13.0 0.00 0.00 0.00 43 1014.6
20210223234813 73 161 7.0 13.0 0.00 0.00 0.00 43 1014.6
20210223234710 73 172 7.0 13.0 0.00 0.00 0.00 42 1014.6
20210223234619 73 214 5.2 12.2 0.00 0.00 0.00 41 1014.7
20210223234525 73 147 5.2 13.9 0.00 0.00 0.00 40 1014.7
20210223234413 73 186 5.2 13.9 0.00 0.00 0.00 40 1014.6
20210223234311 73 155 5.2 13.9 0.00 0.00 0.00 40 1014.7
20210223234212 73 117 5.2 13.9 0.00 0.00 0.00 39 1014.7
20210223234109 73 188 5.2 13.9 0.00 0.00 0.00 39 1014.6
20210223234036 74 250 4.3 13.9 0.00 0.00 0.00 39 1014.6
20210223233909 74 164 3.5 13.9 0.00 0.00 0.00 39 1014.7
20210223233813 74 183 5.2 13.9 0.00 0.00 0.00 39 1014.7
20210223233711 74 137 7.0 13.9 0.00 0.00 0.00 39 1014.7
20210223233610 74 164 7.0 13.9 0.00 0.00 0.00 39 1014.8
20210223233523 74 180 3.5 13.9 0.00 0.00 0.00 38 1014.7
20210223233410 74 251 6.1 13.9 0.00 0.00 0.00 38 1014.7